GEFSSGP_con_cape1000_030.txt.gz
Probability
0 0 0 0 0 0 0 0 0 0 13 19 6 3 6 13 13 81 97 26 3 6 94 100 100 100 100 100 100 100 100 100 100 100 100 100 100 100 100 97 100 100 100 100 97 90 97 94 94
0 0 0 0 0 0 0 0 0 3 29 32 32 45 29 58 90 97 87 32 13 39 100 100 100 100 100 100 100 100 100 100 100 100 100 100 100 97 94 94 97 100 100 94 90 90 94 90 84
0 0 0 0 0 0 0 0 0 23 48 39 23 29 42 87 94 94 90 52 42 77 100 100 100 100 100 100 100 100 100 100 100 100 100 100 100 100 100 100 90 87 94 94 90 94 84 81 71
0 0 0 0 0 0 0 0 13 32 39 39 19 32 71 94 97 97 97 74 65 94 100 100 100 100 100 100 100 100 100 100 100 100 100 100 100 97 97 94 94 90 90 90 94 81 74 68 71
0 0 0 0 0 0 0 0 19 16 29 29 16 13 84 100 97 97 97 84 77 87 100 100 100 100 100 100 100 100 100 100 100 100 100 100 100 100 94 97 87 87 90 84 77 77 65 52 35
0 0 0 0 0 0 0 0 16 10 16 19 16 6 77 100 97 97 87 71 87 94 97 100 100 100 100 100 100 100 100 100 100 100 100 100 100 97 90 87 87 90 84 77 77 65 39 19 6
0 0 0 0 0 0 0 0 3 10 10 10 3 10 74 100 100 87 84 81 81 90 94 100 100 100 100 100 100 100 100 100 100 100 100 94 84 77 74 84 90 68 58 45 45 29 16 6 3
0 0 0 0 0 0 0 0 0 6 16 29 16 10 48 100 100 97 97 90 90 94 81 97 97 100 100 100 100 100 100 100 100 97 87 87 71 77 68 81 58 45 39 26 19 10 10 6 3
0 0 0 0 0 0 0 0 0 10 29 52 39 26 32 100 100 100 97 97 97 94 97 97 97 97 97 94 97 100 100 97 97 87 94 81 71 65 65 55 42 23 16 13 6 10 6 3 0
0 0 0 0 0 0 0 0 0 16 39 55 52 68 94 100 100 100 100 100 97 97 97 97 97 94 90 84 100 97 84 90 81 84 74 77 97 71 10 13 42 23 16 6 6 0 0 0 0
0 0 0 0 0 0 0 0 0 6 19 35 48 84 97 100 100 100 97 94 94 97 87 81 84 84 74 84 87 87 84 90 74 74 87 87 77 52 19 16 6 13 3 0 0 0 0 0 0
0 0 0 0 0 0 0 0 0 0 0 6 32 77 100 100 100 100 94 87 97 90 84 77 77 87 81 74 81 87 87 87 71 87 87 68 65 55 26 32 26 19 10 10 0 0 0 0 0
0 0 0 0 0 0 0 0 0 0 0 13 52 90 100 100 94 97 94 90 87 87 77 77 68 94 100 97 87 77 84 77 81 84 81 84 58 48 42 52 58 45 23 19 16 3 3 3 0
0 0 0 0 0 0 0 0 0 0 13 42 71 90 97 94 94 97 97 90 87 87 74 77 74 94 100 100 100 94 87 94 74 65 65 77 58 58 65 52 58 35 32 26 26 16 10 6 3
0 0 0 0 0 0 0 0 0 6 23 55 74 87 94 94 97 97 97 94 90 90 81 84 81 94 97 97 87 87 77 77 74 68 68 65 61 61 58 39 35 26 16 26 16 16 13 16 0
0 0 0 0 0 0 0 0 0 6 26 35 61 77 81 100 97 97 97 94 97 87 87 71 58 87 90 90 84 71 71 68 52 48 45 29 26 29 39 13 13 19 13 6 10 10 10 6 3
0 0 0 0 0 0 0 0 3 3 6 29 55 74 81 90 100 100 100 94 77 81 84 71 65 71 71 71 68 55 42 39 26 19 16 16 6 6 6 3 6 6 3 3 3 0 3 0 0
0 0 0 0 0 0 0 0 0 0 3 13 39 65 81 90 90 97 90 77 71 68 71 71 65 61 61 48 32 23 16 16 13 10 6 3 0 0 0 0 0 0 0 0 0 0 0 0 0
0 0 0 0 0 0 0 0 0 0 3 6 29 48 71 84 87 81 71 48 52 65 58 65 58 48 42 42 26 13 13 0 0 0 0 0 0 0 0 0 0 0 0 0 0 0 0 0 0
0 0 0 0 0 0 0 0 0 0 0 3 19 48 68 84 68 58 48 52 48 42 29 35 32 29 19 29 13 6 0 0 0 0 0 0 0 0 0 0 0 0 0 0 0 0 0 0 0
0 0 0 0 0 0 0 0 0 0 0 3 23 55 61 90 74 48 39 29 26 26 16 13 16 10 13 3 3 0 0 0 0 0 0 0 0 0 0 0 0 0 0 0 0 0 0 0 0
0 0 0 0 0 0 0 0 0 0 0 6 29 48 65 81 74 48 29 16 16 10 10 10 6 6 3 3 0 0 0 0 0 0 0 0 0 0 0 0 0 0 0 0 0 0 0 0 0
0 0 0 0 0 0 0 0 0 0 0 0 26 52 65 74 55 39 19 13 0 0 3 3 3 0 0 0 0 0 0 0 0 0 0 0 0 0 0 0 0 0 0 0 0 0 0 0 0
0 0 0 0 0 0 0 0 0 0 0 0 10 58 77 65 39 16 10 3 0 0 0 0 0 0 0 0 0 0 0 0 0 0 0 0 0 0 0 0 0 0 0 0 0 0 0 0 0
0 0 0 0 0 0 0 0 0 0 0 0 10 48 81 58 29 13 0 0 0 0 0 0 0 0 0 0 0 0 0 0 0 0 0 0 0 0 0 0 0 0 0 0 0 0 0 0 0
0 0 0 0 0 0 0 0 0 0 0 0 6 39 74 48 32 13 0 0 0 0 0 0 3 3 3 0 0 0 0 0 0 0 0 0 0 0 0 0 0 0 0 0 0 0 0 0 0
0 0 0 0 0 0 0 0 0 0 0 3 6 42 68 42 29 10 0 0 0 0 0 0 3 0 0 0 0 0 0 0 0 0 0 0 0 0 0 0 0 0 0 0 0 0 0 0 0
0 0 0 0 0 0 0 0 0 0 3 10 13 52 68 35 26 3 0 0 0 0 0 0 0 0 0 0 0 0 0 0 0 0 0 0 0 0 0 0 0 0 0 0 0 0 0 0 0
0 0 0 0 0 0 0 0 0 3 6 10 23 55 74 39 26 0 0 0 0 0 0 0 0 0 0 0 0 0 0 0 0 0 0 0 0 0 0 0 0 0 0 0 0 0 0 0 0
0 0 0 0 0 0 0 0 0 0 6 10 16 58 77 42 16 0 0 0 0 0 0 0 0 0 0 0 0 0 0 0 0 0 0 0 0 0 0 0 0 0 0 0 0 0 0 0 0

GEFSSGP_con_cape1000_036.txt.gz
Probability
0 0 0 0 0 0 0 0 0 0 0 0 0 3 16 39 77 74 16 45 100 94 94 100 100 100 100 100 100 100 100 100 100 100 100 100 100 100 100 100 100 100 100 100 100 97 97 84 68
0 0 0 0 0 0 0 0 0 0 0 0 0 0 19 42 58 42 16 94 100 97 97 100 100 100 100 100 100 100 100 100 100 100 100 100 100 100 100 100 100 100 100 100 97 90 74 71 55
0 0 0 0 0 0 0 0 0 0 0 0 0 0 10 32 61 65 48 94 100 100 100 100 100 100 100 100 100 100 100 100 100 100 100 100 100 100 100 94 90 94 97 90 97 87 74 55 39
0 0 0 0 0 0 0 0 0 0 0 0 0 0 6 26 74 81 61 97 100 100 100 100 100 100 100 100 100 100 100 100 100 100 100 100 100 97 97 94 87 90 87 84 74 58 58 42 23
0 0 0 0 0 0 0 0 0 0 0 0 0 3 32 65 97 87 77 97 100 100 100 100 100 100 100 100 100 100 100 100 100 100 100 100 100 94 90 97 94 77 74 68 65 55 48 29 19
0 0 0 0 0 0 0 0 0 0 0 0 0 3 48 84 97 87 87 97 100 100 100 100 100 100 100 100 100 100 100 100 100 100 100 100 97 94 87 90 87 77 65 58 65 58 32 23 10
0 0 0 0 0 0 0 0 0 0 0 0 0 10 42 84 94 87 90 94 100 100 100 100 100 100 100 100 100 100 100 100 100 100 100 100 100 94 94 87 81 65 61 45 35 29 16 10 3
0 0 0 0 0 0 0 0 0 0 0 0 0 3 45 90 90 84 81 94 100 100 100 100 100 100 100 100 100 100 100 100 100 100 100 100 100 97 90 90 87 55 42 32 23 19 13 13 6
0 0 0 0 0 0 0 0 0 0 0 0 0 3 58 81 77 74 68 84 94 100 100 100 100 100 100 100 100 100 100 100 100 97 100 100 90 94 97 74 77 48 35 29 26 16 16 13 13
0 0 0 0 0 0 0 0 0 0 0 0 3 32 74 74 74 71 71 81 87 94 94 100 100 100 100 100 100 100 100 100 94 97 94 97 100 100 84 74 74 45 39 26 26 23 16 10 3
0 0 0 0 0 0 0 0 0 0 0 0 3 35 58 74 74 68 68 74 84 90 97 97 97 100 97 100 97 100 100 100 100 100 100 100 97 94 77 55 52 42 39 23 19 23 3 3 0
0 0 0 0 0 0 0 0 0 0 0 0 0 13 42 68 65 55 61 74 90 90 94 97 97 100 100 100 100 100 100 100 100 100 100 100 100 94 87 77 71 65 39 39 29 26 0 0 0
0 0 0 0 0 0 0 0 0 0 0 0 0 3 32 48 42 48 71 84 94 90 94 94 100 100 100 100 100 100 100 100 100 100 100 100 97 94 81 77 81 71 55 55 48 39 29 13 6
0 0 0 0 0 0 0 0 0 0 0 0 0 0 29 32 32 52 77 90 94 97 100 100 97 100 100 100 100 100 100 100 100 97 100 94 100 90 87 84 81 65 55 55 55 42 35 26 32
0 0 0 0 0 0 0 0 0 0 0 0 0 6 13 19 35 55 77 94 94 100 100 100 100 100 100 100 100 100 100 100 97 100 94 81 84 84 77 81 68 65 61 48 52 39 35 39 19
0 0 0 0 0 0 0 0 0 0 0 0 0 3 6 29 26 58 74 94 94 97 100 100 100 100 100 100 100 100 97 97 97 94 90 77 77 71 74 77 55 52 45 39 39 39 29 23 19
0 0 0 0 0 0 0 0 0 0 0 0 0 0 3 23 26 71 77 94 97 100 100 100 100 100 100 100 100 100 97 97 90 87 74 65 52 45 55 52 42 29 26 26 19 13 19 6 6
0 0 0 0 0 0 0 0 0 0 0 0 0 0 0 6 39 71 81 97 100 100 100 100 100 100 100 100 100 87 84 77 68 55 58 35 29 16 26 29 29 16 16 19 6 3 10 6 3
0 0 0 0 0 0 0 0 0 0 0 0 0 0 0 13 42 74 94 94 100 100 100 100 100 100 100 94 87 84 68 61 45 29 16 10 10 6 6 3 3 0 0 0 0 0 0 0 0
0 0 0 0 0 0 0 0 0 0 0 0 0 0 0 19 58 90 100 94 97 100 100 100 100 100 94 94 87 84 58 35 13 10 6 6 0 0 0 0 0 0 0 0 0 0 0 0 0
0 0 0 0 0 0 0 0 0 0 0 0 0 0 0 19 65 90 100 100 100 100 100 94 97 94 90 84 65 42 29 10 0 0 0 0 0 0 0 0 0 0 0 0 0 0 0 0 0
0 0 0 0 0 0 0 0 0 0 0 0 0 0 0 10 52 87 100 100 97 97 97 87 84 81 74 61 45 19 6 0 0 0 0 0 0 0 0 0 0 0 0 0 0 0 0 0 0
0 0 0 0 0 0 0 0 0 0 0 0 0 0 0 13 42 90 100 94 90 74 58 55 52 55 35 35 39 32 6 3 0 0 0 0 0 0 0 0 0 0 0 0 0 0 0 0 0
0 0 0 0 0 0 0 0 0 0 0 0 0 3 6 10 61 90 94 87 65 45 32 26 23 19 16 13 13 13 3 3 0 0 0 0 0 0 0 0 0 0 0 0 0 0 0 0 0
0 0 0 0 0 0 0 0 0 0 0 0 3 3 13 45 65 90 81 65 39 26 23 10 13 13 10 6 6 6 3 0 0 0 0 0 0 0 0 0 0 0 0 0 0 0 0 0 0
0 0 0 0 0 0 0 0 0 0 0 0 3 6 23 48 68 81 61 42 26 13 10 10 6 6 6 6 6 0 0 0 0 0 0 0 0 0 0 0 0 0 0 0 0 0 0 0 0
0 0 0 0 0 0 0 0 0 0 0 0 3 6 16 42 71 65 55 32 6 6 3 3 6 6 6 6 3 0 0 0 0 0 0 0 0 0 0 0 0 0 0 0 0 0 0 0 0
0 0 0 0 0 0 0 0 0 0 0 0 0 6 26 55 71 55 39 13 10 6 6 6 6 3 0 0 0 0 0 0 0 0 0 0 0 0 0 0 0 0 0 0 0 0 0 0 0
0 0 0 0 0 0 0 0 0 0 0 0 0 3 32 68 55 42 23 6 10 3 0 0 0 0 0 0 0 0 0 0 0 0 0 0 0 0 0 0 0 0 0 0 0 0 0 0 0
0 0 0 0 0 0 0 0 0 0 0 0 0 16 42 65 45 35 10 10 3 0 0 0 0 0 0 0 0 0 0 0 0 0 0 0 0 0 0 0 0 0 0 0 0 0 0 0 0

GEFSSGP_con_cape1000_042.txt.gz
Probability
0 0 0 0 0 0 0 0 0 0 0 0 3 13 16 23 6 3 0 0 6 94 100 100 100 100 100 100 100 100 100 100 100 100 100 100 100 100 100 100 100 100 100 100 100 94 81 74 65
0 0 0 0 0 0 0 0 0 0 0 3 6 39 32 39 52 26 10 0 35 97 100 100 100 100 100 100 100 100 100 100 100 100 100 100 100 100 100 100 100 100 100 100 90 74 65 52 39
0 0 0 0 0 0 0 0 0 0 3 3 6 26 39 45 71 61 19 3 19 81 97 100 100 100 100 100 100 100 100 100 100 100 100 100 100 100 100 100 100 100 100 100 84 71 61 48 35
0 0 0 0 0 0 0 0 0 0 0 0 6 35 42 48 94 81 13 3 10 77 97 100 100 100 100 100 100 100 100 100 100 100 100 100 100 100 100 100 100 100 100 90 74 71 68 48 29
0 0 0 0 0 0 0 0 0 0 0 6 42 65 55 81 97 39 19 13 10 65 100 100 100 100 100 100 100 100 100 100 100 100 100 100 100 100 100 100 100 100 94 84 81 77 61 45 35
0 0 0 0 0 0 0 0 0 0 3 10 55 55 45 94 94 71 52 39 16 71 100 100 100 100 100 100 100 100 100 100 100 100 100 100 100 100 100 100 100 94 87 81 74 71 61 48 35
0 0 0 0 0 0 0 0 0 0 0 0 32 48 45 87 94 94 87 77 52 74 100 100 100 100 100 100 100 100 100 100 100 100 100 100 100 100 100 100 97 90 81 71 68 61 45 32 26
0 0 0 0 0 0 0 0 0 0 0 0 23 58 48 42 84 97 100 97 74 81 94 97 97 100 100 100 100 100 100 100 100 100 100 100 100 100 100 100 94 90 77 71 68 48 35 29 23
0 0 0 0 0 0 0 0 0 0 0 3 10 35 52 45 65 97 100 100 87 81 87 97 97 100 97 100 100 100 100 100 100 100 100 100 87 87 100 90 90 84 74 74 52 39 35 26 23
0 0 0 0 0 0 0 0 0 0 6 16 32 45 52 42 55 90 100 100 97 81 87 94 94 94 87 90 100 100 97 97 97 94 100 71 23 13 65 84 94 77 71 55 48 39 32 19 10
0 0 0 0 0 0 0 0 0 3 3 13 29 48 48 45 45 71 97 97 97 94 84 90 90 87 84 81 87 84 74 84 74 55 61 26 16 3 32 26 71 65 48 35 23 19 23 13 3
0 0 0 0 0 0 0 0 0 0 3 13 29 48 55 35 35 65 84 90 97 90 90 94 90 90 84 81 81 71 65 55 42 35 29 16 10 6 0 0 13 6 3 3 0 0 3 0 0
0 0 0 0 0 0 0 0 0 0 3 16 29 48 45 42 42 52 71 90 90 94 90 97 94 94 84 68 55 68 61 45 26 32 35 26 10 6 0 0 0 0 0 0 0 0 0 0 0
0 0 0 0 0 0 0 0 0 0 3 13 19 35 39 32 29 29 48 61 90 94 94 94 100 100 87 68 61 74 68 52 35 32 35 29 13 6 3 3 0 0 0 0 0 0 0 0 0
0 0 0 0 0 0 0 0 0 0 6 10 16 19 26 13 19 19 35 55 71 84 90 87 97 94 90 71 65 77 65 52 42 42 32 23 13 6 0 0 0 0 0 0 0 0 0 0 0
0 0 0 0 0 0 0 0 0 0 3 3 6 6 6 10 16 19 35 52 65 81 81 84 90 87 77 68 45 65 58 39 35 26 13 10 3 0 0 0 0 0 0 0 0 0 0 0 0
0 0 0 0 0 0 0 0 0 0 0 3 3 3 3 3 10 10 29 45 65 68 84 81 74 71 68 35 39 39 26 23 16 13 10 6 0 0 0 0 0 0 0 0 0 0 0 0 0
0 0 0 0 0 0 0 0 0 0 0 3 0 0 0 3 3 10 29 42 55 71 74 74 81 68 55 35 29 19 10 10 10 10 6 0 0 0 0 0 0 0 0 0 0 0 0 0 0
0 0 0 0 0 0 0 0 0 0 0 0 0 0 0 6 6 19 23 35 45 68 68 71 81 65 58 35 26 23 13 6 0 0 0 0 0 0 0 0 0 0 0 0 0 0 0 0 0
0 0 0 0 0 0 0 0 0 0 0 0 0 0 6 16 26 26 29 55 65 71 71 71 71 65 55 35 23 10 0 0 0 0 0 0 0 0 0 0 0 0 0 0 0 0 0 0 0
0 0 0 0 0 0 0 0 0 0 0 0 0 3 16 26 32 35 48 68 61 74 81 74 71 55 42 39 13 3 0 0 0 0 0 0 0 0 0 0 0 0 0 0 0 0 0 0 0
0 0 0 0 0 0 0 0 0 0 0 0 3 6 23 32 39 55 68 74 68 65 68 77 45 45 29 19 10 0 0 0 0 0 0 0 0 0 0 0 0 0 0 0 0 0 0 0 0
0 0 0 0 0 0 0 0 0 0 0 0 0 6 19 42 55 81 84 77 71 65 48 29 32 16 6 10 3 0 0 0 0 0 0 0 0 0 0 0 0 0 0 0 0 0 0 0 0
0 0 0 0 0 0 0 0 0 0 0 0 3 10 23 45 65 71 71 71 71 35 16 16 10 6 3 3 0 0 0 0 0 0 0 0 0 0 0 0 0 0 0 0 0 0 0 0 0
0 0 0 0 0 0 0 0 0 3 3 6 16 23 39 52 74 81 81 74 42 19 6 6 3 0 3 3 0 0 0 0 0 0 0 0 0 0 0 0 0 0 0 0 0 0 0 0 0
0 0 0 0 0 0 0 0 3 6 10 16 29 48 68 71 84 71 65 39 23 10 3 3 0 0 0 0 0 0 0 0 0 0 0 0 0 0 0 0 0 0 0 0 0 0 0 0 0
0 0 0 0 0 0 0 0 3 13 23 35 61 61 58 58 42 32 16 10 0 0 0 0 0 0 0 0 0 0 0 0 0 0 0 0 0 0 0 0 0 0 0 0 0 0 0 0 0
0 0 0 0 0 0 0 0 0 3 26 52 48 52 42 29 13 6 0 0 0 0 0 0 0 0 0 0 0 0 0 0 0 0 0 0 0 0 0 0 0 0 0 0 0 0 0 0 0
0 0 0 0 0 0 0 0 0 3 32 45 35 32 23 10 3 0 0 0 0 0 0 0 0 0 0 0 0 0 0 0 0 0 0 0 0 0 0 0 0 0 0 0 0 0 0 0 0
0 0 0 0 0 0 0 0 6 10 19 39 29 26 13 3 3 0 0 0 0 0 0 0 0 0 0 0 0 0 0 0 0 0 0 0 0 0 0 0 0 0 0 0 0 0 0 0 0

GEFSSGP_con_cape1000_048.txt.gz
Probability
0 0 0 0 0 0 0 0 0 0 0 0 0 0 0 0 0 0 0 0 13 84 100 100 100 100 100 100 100 100 100 100 100 100 100 100 100 100 100 100 100 100 100 100 100 100 100 87 90
0 0 0 0 0 0 0 0 0 0 0 0 3 6 13 26 13 0 0 23 61 94 100 100 100 100 100 100 100 100 100 100 100 100 100 100 100 100 100 100 100 100 100 100 97 94 81 77 71
0 0 0 0 0 0 0 0 0 0 0 0 3 6 23 32 26 0 0 55 90 97 100 100 100 100 100 100 100 100 100 100 100 100 100 100 100 100 100 100 100 100 100 100 90 74 68 61 58
0 0 0 0 0 0 0 0 0 0 0 0 10 26 35 52 29 3 23 77 90 100 100 100 100 100 100 100 100 100 100 100 100 100 100 100 100 100 100 100 100 100 100 90 81 68 68 58 42
0 0 0 0 0 0 0 0 0 0 0 3 23 35 52 81 29 3 45 65 77 97 100 100 100 100 100 100 100 100 100 100 100 100 100 100 100 100 100 100 100 100 94 84 77 81 77 55 42
0 0 0 0 0 0 0 0 0 0 0 13 23 42 55 42 16 6 13 29 68 97 100 100 100 100 100 100 100 100 100 100 100 100 100 100 100 100 100 100 100 97 94 81 77 81 71 48 32
0 0 0 0 0 0 0 0 0 0 3 10 32 35 81 35 10 3 3 16 71 97 100 100 100 100 100 100 100 100 100 100 100 100 100 100 100 100 100 100 100 94 90 81 77 71 55 35 29
0 0 0 0 0 0 0 0 0 0 3 13 32 42 71 48 6 0 0 13 71 97 100 100 100 100 100 100 100 100 100 100 100 100 100 100 100 100 100 100 94 90 90 77 71 61 45 32 29
0 0 0 0 0 0 0 0 0 0 0 10 16 23 55 42 6 3 6 13 55 94 97 94 97 100 100 100 100 100 100 100 100 100 100 100 100 97 100 100 94 90 84 71 61 58 45 39 35
0 0 0 0 0 0 0 0 0 0 0 16 19 29 71 48 16 3 10 6 10 52 81 84 90 94 97 100 100 100 100 100 100 97 100 97 48 32 90 84 90 87 77 65 58 52 45 29 10
0 0 0 0 0 0 0 0 0 0 0 10 23 58 90 65 52 35 16 10 3 10 48 71 77 87 84 81 81 77 71 74 77 74 87 42 10 3 29 10 42 71 71 48 29 26 16 13 3
0 0 0 0 0 0 0 0 0 0 0 0 26 65 97 90 81 68 45 16 10 6 23 42 71 77 77 58 71 71 61 68 61 39 23 19 3 0 0 0 0 6 13 6 3 3 0 0 3
0 0 0 0 0 0 0 0 0 0 0 6 16 71 97 94 90 84 87 48 26 16 19 29 65 61 71 55 58 58 45 42 35 13 16 13 0 0 0 0 0 0 0 0 3 0 0 0 0
0 0 0 0 0 0 0 0 0 0 3 10 23 58 90 97 97 97 97 94 58 39 13 19 52 48 55 52 48 52 35 29 16 10 6 10 0 0 0 0 0 0 0 0 0 0 0 0 0
0 0 0 0 0 0 0 0 0 0 3 6 19 32 58 87 94 100 100 97 90 58 29 19 32 35 29 26 26 19 23 6 6 3 3 10 6 0 0 0 0 0 0 0 0 0 0 0 0
0 0 0 0 0 0 0 0 0 0 3 3 10 23 32 52 77 84 94 97 97 87 48 26 29 26 19 16 10 16 6 3 0 3 3 3 6 0 0 0 0 0 0 0 0 0 0 0 0
0 0 0 0 0 0 0 0 0 0 3 3 6 10 26 29 35 45 65 81 90 94 71 52 48 26 23 13 3 3 3 3 3 3 0 3 10 6 0 0 0 0 0 0 0 0 0 0 0
0 0 0 0 0 0 0 0 0 0 0 3 3 3 6 23 26 23 16 52 71 81 84 71 61 35 23 13 10 10 6 0 0 3 0 0 6 3 0 0 0 0 0 0 0 0 0 0 0
0 0 0 0 0 0 0 0 0 0 0 0 0 3 3 0 6 6 6 10 52 71 87 87 77 61 32 16 13 13 10 6 3 3 3 0 0 3 3 0 0 0 0 0 0 0 0 0 0
0 0 0 0 0 0 0 0 0 0 0 0 0 0 0 0 0 0 3 3 23 42 68 74 65 48 39 19 16 6 6 0 0 0 0 0 0 0 0 0 0 0 0 0 0 0 0 0 0
0 0 0 0 0 0 0 0 0 0 0 0 0 0 0 0 0 0 3 3 3 16 32 45 45 39 26 13 3 0 0 0 0 0 0 0 0 0 0 0 0 0 0 0 0 0 0 0 0
0 0 0 0 0 0 0 0 0 0 0 0 0 0 3 3 3 0 0 0 3 10 13 16 23 19 16 6 3 3 0 0 0 0 0 0 0 0 0 0 0 0 0 0 0 0 0 0 0
0 0 0 0 0 0 0 0 0 0 0 0 10 10 6 10 6 6 10 10 10 6 6 13 13 10 0 3 0 0 0 0 0 0 0 0 0 0 0 0 0 0 0 0 0 0 0 0 0
0 0 0 0 0 0 0 0 0 3 6 6 10 29 19 16 16 23 13 10 10 13 10 10 6 0 0 0 0 0 0 0 0 0 0 0 0 0 0 0 0 0 0 0 0 0 0 0 0
0 0 0 0 0 0 0 0 0 6 23 16 32 39 39 35 35 35 23 26 23 13 3 3 0 0 0 0 0 0 0 0 0 0 0 0 0 0 0 0 0 0 0 0 0 0 0 0 0
0 0 0 0 0 0 0 0 0 13 32 39 39 35 42 42 35 29 23 10 10 3 3 0 0 0 0 0 0 0 0 0 0 0 0 0 0 0 0 0 0 0 0 0 0 0 0 0 0
0 0 0 0 0 0 0 0 0 16 32 39 45 39 39 26 16 10 10 3 3 3 0 0 0 0 0 0 0 0 0 0 0 0 0 0 0 0 0 0 0 0 0 0 0 0 0 0 0
0 0 0 0 0 0 0 0 0 0 19 29 35 29 23 13 3 3 3 0 0 0 0 0 0 0 0 0 0 0 0 0 0 0 0 0 0 0 0 0 0 0 0 0 0 0 0 0 0
0 0 0 0 0 0 0 0 0 0 10 23 23 13 16 6 0 0 0 0 0 0 0 0 0 0 0 0 0 0 0 0 0 0 0 0 0 0 0 0 0 0 0 0 0 0 0 0 0
0 0 0 0 0 0 0 0 3 6 13 19 13 6 0 0 0 0 0 0 0 0 0 0 0 0 0 0 0 0 0 0 0 0 0 0 0 0 0 0 0 0 0 0 0 0 0 0 0

GEFSSGP_con_cape1000_054.txt.gz
Probability
0 0 0 0 0 0 0 0 0 0 0 0 0 0 3 0 0 13 65 3 10 68 100 97 100 100 100 100 100 100 100 100 100 100 100 100 100 100 100 100 100 100 100 100 100 100 97 97 97
0 0 0 0 0 0 0 0 0 0 0 0 0 0 6 10 48 61 42 3 32 87 100 97 100 100 100 100 100 100 100 100 100 100 100 100 100 100 100 100 100 100 100 100 100 100 97 97 94
0 0 0 0 0 0 0 0 0 0 0 0 3 6 13 29 58 74 61 13 58 90 100 100 100 100 100 100 100 100 100 100 100 100 100 100 100 100 100 100 100 100 100 100 100 94 81 74 71
0 0 0 0 0 0 0 0 0 0 0 3 6 10 26 65 61 68 55 32 65 90 100 100 100 100 100 100 100 100 100 100 100 100 100 100 100 100 100 100 100 100 100 100 87 81 74 65 58
0 0 0 0 0 0 0 0 0 0 0 10 10 10 35 77 77 81 65 45 71 74 100 100 100 100 100 100 100 100 100 100 100 100 100 100 100 100 100 100 100 100 97 84 81 74 71 48 45
0 0 0 0 0 0 0 0 0 0 0 3 13 3 39 90 87 87 68 58 61 68 90 100 100 100 100 100 100 100 100 100 100 100 100 100 100 100 100 100 100 94 90 84 81 77 52 42 32
0 0 0 0 0 0 0 0 0 0 0 0 3 3 39 90 87 87 77 45 42 58 77 100 100 100 100 100 100 100 100 100 100 100 100 100 100 100 100 100 94 94 84 84 71 65 48 35 26
0 0 0 0 0 0 0 0 0 0 0 3 6 3 26 87 94 94 77 48 39 58 71 97 100 100 100 100 100 100 100 100 100 100 100 100 100 100 100 97 94 94 74 68 65 55 45 32 32
0 0 0 0 0 0 0 0 0 0 0 6 13 13 39 87 94 97 77 77 58 71 84 90 100 100 100 100 100 100 100 100 100 100 100 100 100 84 97 94 90 87 74 65 55 55 39 32 29
0 0 0 0 0 0 0 0 0 0 0 3 13 29 81 100 100 100 84 90 87 84 84 87 100 100 100 100 100 100 97 100 97 100 100 100 97 94 71 87 87 84 81 61 52 48 39 19 16
0 0 0 0 0 0 0 0 0 0 3 3 16 39 71 97 100 100 81 87 90 94 90 87 100 100 100 100 100 100 97 100 97 100 100 100 100 94 77 90 84 87 71 48 58 35 16 6 6
0 0 0 0 0 0 0 0 0 0 0 3 10 29 71 94 87 94 77 74 77 84 94 87 100 100 100 100 100 97 94 97 90 100 100 100 100 94 81 84 58 61 58 52 39 19 10 6 6
0 0 0 0 0 0 0 0 0 0 0 3 6 26 65 87 87 90 74 77 74 87 97 100 100 100 100 100 100 94 94 84 84 97 100 100 90 81 58 71 74 55 52 45 35 23 16 13 10
0 0 0 0 0 0 0 0 0 0 0 0 10 35 55 84 81 84 97 94 87 90 97 100 100 100 100 100 100 97 94 97 81 94 100 100 94 94 81 84 81 65 58 48 39 29 16 13 13
0 0 0 0 0 0 0 0 0 0 0 0 13 26 48 71 87 87 97 100 97 94 100 100 100 100 100 100 100 100 97 94 94 97 97 97 94 94 90 84 84 74 68 61 42 32 19 16 10
0 0 0 0 0 0 0 0 0 0 0 0 3 19 42 61 81 97 97 100 100 100 100 100 94 100 100 100 100 97 87 87 87 90 90 84 90 90 94 87 81 71 58 48 42 35 23 13 16
0 0 0 0 0 0 0 0 0 0 0 0 3 6 26 52 81 97 97 100 100 100 100 100 100 100 100 100 97 90 84 87 84 81 74 77 77 81 90 87 74 55 55 39 13 10 16 16 13
0 0 0 0 0 0 0 0 0 0 0 0 3 6 23 32 65 77 94 100 100 100 100 100 100 100 100 94 90 81 77 68 65 65 52 48 48 48 55 48 42 39 32 16 10 3 3 6 10
0 0 0 0 0 0 0 0 0 0 0 0 3 3 13 29 39 61 81 94 97 100 100 100 100 100 100 90 81 77 61 52 52 35 35 35 35 29 26 16 19 16 10 13 3 0 0 0 0
0 0 0 0 0 0 0 0 0 0 0 3 3 6 3 13 29 42 68 94 94 97 100 100 100 100 97 87 71 58 55 39 29 26 19 19 19 16 13 13 16 13 10 3 3 0 0 0 0
0 0 0 0 0 0 0 0 0 0 0 6 6 10 16 16 35 32 58 81 90 97 100 100 100 97 94 77 58 39 32 19 16 10 6 6 3 3 3 3 3 6 3 0 0 0 0 0 0
0 0 0 0 0 0 0 0 0 0 0 6 13 23 32 35 29 26 45 61 77 94 94 94 94 94 77 58 45 42 32 29 19 6 3 3 3 3 3 3 3 3 3 0 0 0 0 0 0
0 0 0 0 0 0 0 0 0 0 0 6 23 29 32 26 29 42 45 61 74 81 90 87 90 77 55 48 52 48 35 23 6 6 6 6 3 3 3 3 3 3 0 0 0 0 0 0 0
0 0 0 0 0 0 0 0 0 0 6 26 35 39 45 35 29 48 52 68 68 68 71 71 58 42 32 35 32 29 23 3 3 3 3 3 3 3 0 0 0 0 0 0 0 0 0 0 0
0 0 0 0 0 0 0 0 0 16 29 32 39 42 45 32 26 39 39 39 35 39 42 42 32 16 10 13 16 13 6 3 3 6 3 3 0 0 0 0 0 0 0 0 0 0 0 0 0
0 0 0 0 0 0 0 0 6 19 35 42 42 35 23 19 26 23 19 23 19 19 23 16 6 6 6 3 3 6 6 3 3 0 0 0 0 0 0 0 0 0 0 0 0 0 0 0 0
0 0 0 0 0 0 0 0 10 35 39 42 35 26 26 16 10 10 10 13 6 6 3 3 3 3 0 0 0 0 0 0 0 0 0 0 0 0 0 0 0 0 0 0 0 0 0 0 0
0 0 0 0 0 0 0 0 0 35 45 39 29 23 10 0 0 0 0 0 0 0 0 0 0 0 0 0 0 0 0 0 0 0 0 0 0 0 0 0 0 0 0 0 0 0 0 0 0
0 0 0 0 0 0 0 0 3 39 52 45 19 10 3 0 0 0 0 0 0 0 0 0 0 0 0 0 0 0 0 0 0 0 0 0 0 0 0 0 0 0 0 0 0 0 0 0 0
0 0 0 0 0 0 0 0 3 26 42 23 19 3 0 0 0 0 0 0 0 0 0 0 0 0 0 0 0 0 0 0 0 0 0 0 0 0 0 0 0 0 0 0 0 0 0 0 0

GEFSSGP_con_cape1000_060.txt.gz
Probability
0 0 0 0 0 0 0 0 0 0 0 0 0 0 0 6 23 71 55 29 87 87 81 100 100 100 100 100 100 100 100 100 100 100 100 100 100 100 100 100 100 100 100 100 100 97 97 94 94
0 0 0 0 0 0 0 0 0 0 0 0 0 0 3 13 23 32 23 52 94 90 74 97 100 100 100 100 100 100 100 100 100 100 100 100 100 100 100 100 100 100 100 100 97 94 94 94 90
0 0 0 0 0 0 0 0 0 0 0 0 0 0 3 16 16 39 48 61 94 94 87 100 100 100 100 100 100 100 100 100 100 100 100 100 100 100 100 100 100 100 100 100 94 84 77 74 74
0 0 0 0 0 0 0 0 0 0 0 0 0 0 13 13 26 45 55 74 97 94 97 100 100 100 100 100 100 100 100 100 100 100 100 100 100 100 100 100 100 100 100 90 84 74 71 58 52
0 0 0 0 0 0 0 0 0 0 0 0 0 0 29 39 39 55 55 77 90 94 100 100 100 100 100 100 100 100 100 100 100 100 100 100 100 100 100 100 100 97 97 77 74 68 52 48 45
0 0 0 0 0 0 0 0 0 0 0 0 0 0 39 45 55 52 58 71 77 97 97 100 100 100 100 100 100 100 100 100 100 100 100 100 100 100 100 100 100 90 81 74 68 48 39 26 29
0 0 0 0 0 0 0 0 0 0 0 0 0 3 48 61 58 45 48 61 74 97 97 100 97 100 100 100 100 100 100 100 100 100 100 100 100 100 100 100 94 94 81 74 58 29 19 23 19
0 0 0 0 0 0 0 0 0 0 0 0 0 3 45 68 65 48 45 52 65 97 97 97 100 100 100 100 100 100 100 100 100 100 100 100 100 100 100 97 94 87 81 68 61 48 32 32 35
0 0 0 0 0 0 0 0 0 0 0 0 0 13 55 68 65 58 52 45 65 87 97 94 100 100 97 94 100 100 100 100 100 100 100 100 100 97 100 94 94 84 74 71 58 55 48 48 42
0 0 0 0 0 0 0 0 0 0 0 0 3 29 58 71 61 58 52 52 55 77 94 90 100 100 100 90 97 100 97 100 97 100 100 100 100 100 94 97 90 87 81 81 68 58 55 52 32
0 0 0 0 0 0 0 0 0 0 0 0 6 26 58 71 65 65 55 52 65 74 90 97 100 100 100 100 100 100 100 100 100 100 100 100 100 100 97 90 90 87 84 74 68 61 35 26 16
0 0 0 0 0 0 0 0 0 0 0 0 3 23 45 61 61 68 55 58 68 74 84 97 100 100 100 100 100 100 100 100 97 100 100 100 100 100 100 100 90 90 77 81 65 48 29 23 13
0 0 0 0 0 0 0 0 0 0 0 0 3 19 35 52 65 68 61 71 84 90 90 97 100 100 100 100 100 100 100 100 100 100 100 100 100 100 100 100 97 94 90 81 71 65 39 19 13
0 0 0 0 0 0 0 0 0 0 0 0 0 10 23 48 52 61 65 84 90 90 90 100 100 100 100 100 100 100 100 100 100 100 100 100 100 100 100 100 100 90 84 74 68 52 45 26 23
0 0 0 0 0 0 0 0 0 0 0 0 0 10 19 26 48 58 65 84 97 100 100 100 100 100 100 100 100 100 100 100 100 100 100 100 97 100 100 94 90 90 81 77 48 42 29 23 16
0 0 0 0 0 0 0 0 0 0 0 0 0 3 13 29 23 55 71 94 100 100 100 100 100 100 100 100 100 100 100 100 94 94 84 87 90 94 90 90 84 77 84 71 61 45 26 26 19
0 0 0 0 0 0 0 0 0 0 0 0 0 3 19 32 32 48 71 94 100 100 100 100 100 100 100 100 100 100 97 97 90 84 87 81 81 84 77 77 74 77 61 55 35 32 39 29 16
0 0 0 0 0 0 0 0 0 0 0 0 3 10 19 29 39 42 71 90 97 100 100 100 100 100 100 100 100 94 94 94 84 81 81 81 77 74 71 71 61 52 45 42 35 23 19 10 13
0 0 0 0 0 0 0 0 0 0 0 3 3 10 13 23 29 58 84 90 94 100 100 100 100 100 100 97 97 94 84 81 77 65 71 58 48 55 55 42 48 32 29 26 16 16 13 10 10
0 0 0 0 0 0 0 0 0 0 0 3 13 19 26 26 39 65 81 87 87 94 100 100 100 100 97 94 94 87 77 58 55 45 26 32 32 29 23 32 23 16 19 10 3 6 6 6 3
0 0 0 0 0 0 0 0 0 3 6 16 19 23 23 29 45 68 74 81 90 90 94 97 97 94 90 87 77 74 61 45 35 29 23 13 13 10 16 13 10 10 3 3 3 3 3 6 0
0 0 0 0 0 0 0 0 0 3 10 16 16 26 29 52 55 65 68 77 77 81 90 94 97 90 84 74 74 61 58 32 32 19 10 6 3 3 6 6 6 3 3 6 6 6 3 0 0
0 0 0 0 0 0 0 0 0 3 13 13 19 35 42 48 48 52 52 65 71 74 77 81 68 65 74 71 68 58 48 29 13 6 6 3 0 0 3 3 3 3 3 3 0 0 0 0 0
0 0 0 0 0 0 0 0 0 6 16 26 35 42 45 45 48 52 52 55 55 58 45 42 42 45 42 42 35 26 26 13 6 6 6 3 3 3 0 0 0 0 0 0 0 0 0 0 0
0 0 0 0 0 0 0 0 6 52 52 55 45 39 39 42 39 35 35 29 29 29 26 19 19 13 13 13 13 13 10 3 10 6 3 3 0 0 0 0 0 0 0 0 0 0 0 0 0
0 0 0 0 0 0 0 0 29 74 68 61 45 35 26 19 16 16 16 23 23 19 16 16 13 0 3 3 3 3 3 6 3 0 0 0 0 0 0 0 0 0 0 0 0 0 0 0 0
0 0 0 0 0 0 0 19 55 77 61 48 35 23 10 10 10 10 6 13 13 6 6 6 0 0 0 0 0 3 3 0 0 0 0 0 0 0 0 0 0 0 0 0 0 0 0 0 0
0 0 0 0 0 0 0 13 45 74 58 42 23 10 6 0 0 0 0 0 0 3 3 0 0 0 0 0 0 0 0 0 0 0 0 0 0 0 0 0 0 0 0 0 0 0 0 0 0
0 0 0 0 0 0 0 0 39 71 52 35 16 0 0 0 0 0 0 0 0 0 0 0 0 0 0 0 0 0 0 0 0 0 0 0 0 0 0 0 0 0 0 0 0 0 0 0 0
0 0 0 0 0 0 0 29 68 68 35 23 0 0 0 0 0 0 0 0 0 0 0 0 0 0 0 0 0 0 0 0 0 0 0 0 0 0 0 0 0 0 0 0 0 0 0 0 0

GEFSSGP_con_cape1000_066.txt.gz
Probability
0 0 0 0 0 0 0 0 0 0 0 0 0 6 13 13 3 0 0 3 19 84 100 100 100 100 100 100 100 100 100 100 100 100 100 100 100 100 100 100 100 100 100 100 100 97 97 97 97
0 0 0 0 0 0 0 0 0 0 0 0 6 23 19 39 55 29 19 13 48 94 100 100 100 100 100 100 100 100 100 100 100 100 100 100 100 100 100 100 100 100 100 97 97 94 87 87 94
0 0 0 0 0 0 0 0 0 0 0 0 6 10 16 29 55 58 32 29 48 90 100 100 100 100 100 100 100 100 100 100 100 100 100 100 100 100 100 100 100 100 100 97 90 81 74 71 74
0 0 0 0 0 0 0 0 0 0 0 0 10 6 13 19 74 58 32 29 45 87 100 100 100 100 100 100 100 100 100 100 100 100 100 100 100 100 100 100 100 100 97 94 81 74 68 58 52
0 0 0 0 0 0 0 0 0 0 0 0 10 16 29 65 84 45 35 23 48 87 100 100 100 100 100 100 100 100 100 100 100 100 100 100 100 100 100 100 100 100 97 87 71 61 52 42 39
0 0 0 0 0 0 0 0 0 0 0 0 16 26 29 74 87 55 42 35 55 84 100 100 100 100 100 100 100 100 100 100 100 100 100 100 100 100 100 100 100 97 90 81 71 65 48 39 35
0 0 0 0 0 0 0 0 0 0 0 0 13 29 32 68 87 81 65 52 61 87 100 100 100 100 100 100 100 100 100 100 100 100 100 100 100 100 100 100 100 90 87 77 58 52 42 35 32
0 0 0 0 0 0 0 0 0 0 0 0 10 26 26 52 77 87 84 71 58 77 100 100 100 100 100 100 100 100 100 100 100 100 100 100 100 100 100 100 100 90 87 74 71 65 61 48 48
0 0 0 0 0 0 0 0 0 0 0 0 13 29 26 52 65 87 90 81 65 74 87 94 97 100 100 100 100 100 100 100 100 100 100 100 100 100 100 97 90 90 87 81 77 71 65 55 52
0 0 0 0 0 0 0 0 0 0 0 10 29 35 42 52 58 84 94 87 71 61 58 87 90 94 94 94 100 100 100 100 100 100 100 84 58 61 90 97 97 90 87 81 81 74 68 48 23
0 0 0 0 0 0 0 0 0 0 0 10 32 35 35 45 55 77 87 90 68 45 35 58 65 71 68 71 84 74 74 74 68 77 74 39 16 23 48 58 94 84 77 58 52 58 42 26 10
0 0 0 0 0 0 0 0 0 0 0 3 32 32 32 35 45 55 74 87 71 52 39 39 35 35 32 55 65 58 52 48 42 35 45 13 10 10 13 16 42 52 35 13 13 10 16 6 6
0 0 0 0 0 0 0 0 0 0 0 6 32 32 32 35 32 35 55 65 65 58 52 45 39 35 32 42 39 42 26 29 13 19 29 10 6 6 10 16 23 19 10 6 6 6 6 6 6
0 0 0 0 0 0 0 0 0 0 3 16 26 29 26 26 16 32 48 61 68 65 61 68 55 45 48 48 39 39 32 26 10 16 39 19 13 10 13 10 10 6 6 6 6 6 6 6 3
0 0 0 0 0 0 0 0 0 0 6 10 29 26 26 29 23 35 45 55 58 68 68 71 74 68 71 61 58 58 58 52 32 23 32 29 13 13 13 10 10 6 3 6 6 6 6 0 0
0 0 0 0 0 0 0 0 0 0 6 6 13 23 29 26 29 29 39 39 58 65 74 77 87 90 87 74 68 71 71 55 45 42 29 32 26 13 13 10 3 3 3 6 0 3 0 0 0
0 0 0 0 0 0 0 0 0 0 0 6 6 19 23 29 32 32 32 35 48 65 68 84 84 90 90 84 65 65 65 58 55 45 39 42 32 23 13 6 6 6 6 3 3 0 0 0 0
0 0 0 0 0 0 0 0 0 3 6 6 10 16 26 35 39 42 39 39 35 61 74 81 84 94 84 77 68 58 55 39 29 29 26 29 26 23 10 6 3 3 3 0 0 0 0 0 0
0 0 0 0 0 0 0 0 0 3 6 6 16 23 19 23 29 29 35 52 58 45 55 84 87 87 87 81 77 65 42 29 23 16 16 19 16 13 6 6 3 3 3 0 0 0 0 0 0
0 0 0 0 0 0 0 0 3 6 10 16 16 23 19 19 26 32 35 39 48 42 58 71 81 87 87 81 58 45 32 19 19 19 13 3 3 6 3 0 0 0 0 0 0 0 0 0 0
0 0 0 0 0 0 0 3 10 13 26 29 23 23 32 23 26 39 42 42 45 65 61 71 77 74 74 58 39 29 23 13 10 10 3 3 6 6 3 0 0 0 0 0 0 0 0 0 0
0 0 0 0 0 0 0 0 6 19 23 35 35 29 26 23 35 32 39 42 45 48 48 48 52 48 52 42 35 35 29 13 10 3 0 0 0 0 0 0 0 0 0 0 0 0 0 0 0
0 0 0 0 0 0 0 0 3 16 35 42 29 32 32 26 23 29 29 35 35 29 35 32 39 32 32 26 26 26 13 10 3 0 0 0 0 0 0 0 0 0 0 0 0 0 0 0 0
0 0 0 0 0 0 0 0 3 32 45 32 29 23 23 19 16 19 19 19 19 23 26 32 29 23 19 19 19 13 10 3 0 0 0 0 0 0 0 0 0 0 0 0 0 0 0 0 0
0 0 0 0 0 0 0 0 13 39 32 29 19 19 16 13 16 19 16 13 13 13 10 13 13 10 6 6 0 0 0 0 0 0 0 0 0 0 0 0 0 0 0 0 0 0 0 0 0
0 0 0 0 0 0 0 10 48 32 23 13 10 6 6 6 10 10 10 13 13 6 0 0 6 3 3 3 0 0 0 0 0 0 0 0 0 0 0 0 0 0 0 0 0 0 0 0 0
0 0 0 0 0 0 0 35 58 19 13 6 3 0 0 3 3 3 0 0 3 3 3 3 3 0 0 0 0 0 0 0 0 0 0 0 0 0 0 0 0 0 0 0 0 0 0 0 0
0 0 0 0 0 0 0 6 29 35 6 6 0 0 0 0 0 0 0 0 0 0 0 0 0 0 0 0 0 0 0 0 0 0 0 0 0 0 0 0 0 0 0 0 0 0 0 0 0
0 0 0 0 0 0 0 0 6 13 3 3 0 0 0 0 0 0 0 0 0 0 0 0 0 0 0 0 0 0 0 0 0 0 0 0 0 0 0 0 0 0 0 0 0 0 0 0 0
0 0 0 0 0 0 0 0 6 3 0 0 0 0 0 0 0 0 0 0 0 0 0 0 0 0 0 0 0 0 0 0 0 0 0 0 0 0 0 0 0 0 0 0 0 0 0 0 0

GEFSSGP_con_cape1000_072.txt.gz
Probability
0 0 0 0 0 0 0 0 0 0 0 0 0 0 0 0 0 0 0 0 16 94 100 100 100 100 100 100 100 100 100 100 100 100 100 100 100 100 100 100 100 100 100 100 100 100 100 100 100
0 0 0 0 0 0 0 0 0 0 0 0 0 0 0 19 13 0 0 6 71 97 100 100 100 100 100 100 100 100 100 100 100 100 100 100 100 100 100 100 100 100 100 100 100 100 100 100 100
0 0 0 0 0 0 0 0 0 0 0 0 0 0 10 32 29 3 3 55 81 97 100 100 100 100 100 100 100 100 100 100 100 100 100 100 100 100 100 100 100 100 100 100 97 94 94 94 94
0 0 0 0 0 0 0 0 0 0 0 0 0 3 19 48 45 16 26 71 94 100 100 100 100 100 100 100 100 100 100 100 100 100 100 100 100 100 100 100 100 100 100 94 94 87 87 81 81
0 0 0 0 0 0 0 0 0 0 0 0 3 6 35 71 32 32 58 81 94 100 100 100 100 100 100 100 100 100 100 100 100 100 100 100 100 100 100 100 100 100 97 90 84 77 65 65 55
0 0 0 0 0 0 0 0 0 0 0 0 0 10 45 42 32 45 52 65 94 100 100 100 100 100 100 100 100 100 100 100 100 100 100 100 100 100 100 100 100 100 97 84 74 65 55 45 55
0 0 0 0 0 0 0 0 0 0 0 0 0 23 58 42 32 42 39 68 97 100 100 100 100 100 100 100 100 100 100 100 100 100 100 100 100 100 100 100 100 100 90 77 68 55 42 35 42
0 0 0 0 0 0 0 0 0 0 0 0 3 35 52 52 32 29 42 81 100 100 100 100 100 100 100 100 100 100 100 100 100 100 100 100 100 100 100 100 100 100 87 71 55 52 48 48 42
0 0 0 0 0 0 0 0 0 0 0 3 13 16 48 45 45 35 45 81 94 97 100 100 100 100 100 100 100 100 100 100 100 100 100 100 100 100 100 100 100 90 77 68 65 65 61 58 42
0 0 0 0 0 0 0 0 0 0 3 6 13 45 71 48 52 42 39 42 65 87 97 97 97 97 100 100 100 100 100 100 100 97 100 90 58 77 100 97 97 87 84 74 71 65 55 42 23
0 0 0 0 0 0 0 0 0 0 0 3 19 58 81 65 48 35 29 23 26 45 87 90 94 94 97 90 100 87 87 87 81 81 81 45 29 39 61 52 87 77 74 52 42 42 39 32 13
0 0 0 0 0 0 0 0 0 0 0 0 16 55 81 81 74 52 29 19 10 19 58 84 90 81 71 71 87 61 68 74 68 65 39 29 19 19 19 13 13 45 35 29 13 6 6 6 6
0 0 0 0 0 0 0 0 0 0 0 3 19 65 81 87 87 71 55 29 23 23 32 65 77 68 58 45 61 52 52 55 48 39 32 19 19 13 10 3 3 6 13 13 6 6 6 6 6
0 0 0 0 0 0 0 0 0 0 0 6 39 55 68 84 81 81 65 52 35 16 23 42 68 55 45 39 42 39 35 29 19 19 29 16 13 6 6 3 3 3 6 3 6 6 6 6 6
0 0 0 0 0 0 0 0 0 0 0 23 39 52 58 68 71 74 71 58 42 23 19 23 32 39 29 29 23 16 19 13 16 13 16 13 10 0 0 0 0 0 6 3 3 6 3 0 0
0 0 0 0 0 0 0 0 0 0 3 19 29 45 48 52 65 68 71 68 52 35 16 19 35 26 19 13 13 10 13 10 10 6 6 10 6 0 0 0 0 3 3 3 3 6 0 0 0
0 0 0 0 0 0 0 0 0 0 3 3 16 32 42 42 42 45 61 68 65 42 23 13 19 23 16 13 10 6 6 6 6 3 6 6 13 6 3 3 6 3 3 0 3 0 0 0 0
0 0 0 0 0 0 0 0 6 3 3 6 10 16 23 26 29 32 48 68 68 52 29 16 26 19 23 10 16 6 3 3 6 3 3 0 6 13 6 6 6 3 0 3 3 0 0 0 0
0 0 0 0 0 3 3 10 10 10 13 6 13 13 13 16 6 13 23 55 58 48 42 26 23 19 29 26 23 10 3 0 0 0 0 0 3 6 3 3 0 0 0 0 0 0 0 0 0
0 0 0 0 0 3 3 10 26 19 19 16 13 10 19 19 19 13 16 35 42 45 48 39 32 29 32 29 16 6 10 6 3 3 3 0 0 0 0 0 0 0 0 0 0 0 0 0 0
0 0 0 0 0 0 0 0 16 13 13 13 13 13 16 19 19 13 19 26 32 42 42 48 39 32 26 23 16 10 3 3 0 0 0 0 0 0 0 0 0 0 0 0 0 0 0 0 0
0 0 0 0 0 0 0 0 0 10 16 13 13 13 16 19 23 19 16 23 29 32 32 32 39 29 23 16 10 10 10 6 6 3 3 0 0 0 0 0 0 0 0 0 0 0 0 0 0
0 0 0 0 0 0 0 0 0 16 13 16 16 10 13 10 6 3 23 23 16 23 35 29 19 16 16 16 13 10 6 3 0 0 0 0 0 0 0 0 0 0 0 0 0 0 0 0 0
0 0 0 0 0 0 0 0 6 10 16 19 16 6 6 10 16 13 13 13 10 13 23 16 10 10 13 13 6 3 0 0 0 0 0 0 0 0 0 0 0 0 0 0 0 0 0 0 0
0 0 0 0 0 0 0 0 23 19 19 13 6 6 6 6 3 6 10 10 13 6 10 13 13 6 3 3 3 0 0 0 0 0 0 0 0 0 0 0 0 0 0 0 0 0 0 0 0
0 0 0 0 0 0 0 6 19 16 13 6 6 6 6 6 3 3 3 0 3 3 3 0 0 0 0 0 0 0 0 0 0 0 0 0 0 0 0 0 0 0 0 0 0 0 0 0 0
0 0 0 0 0 0 0 6 16 10 6 0 0 0 0 0 3 3 3 0 3 3 0 0 0 0 0 0 0 0 0 0 0 0 0 0 0 0 0 0 0 0 0 0 0 0 0 0 0
0 0 0 0 0 0 0 3 6 10 10 0 0 0 0 0 0 0 0 0 0 0 0 0 0 0 0 0 0 0 0 0 0 0 0 0 0 0 0 0 0 0 0 0 0 0 0 0 0
0 0 0 0 0 0 0 0 3 6 0 0 0 0 0 0 0 0 0 0 0 0 0 0 0 0 0 0 0 0 0 0 0 0 0 0 0 0 0 0 0 0 0 0 0 0 0 0 0
0 0 0 0 0 0 0 0 0 0 0 0 0 0 0 0 0 0 0 0 0 0 0 0 0 0 0 0 0 0 0 0 0 0 0 0 0 0 0 0 0 0 0 0 0 0 0 0 0

GEFSSGP_con_cape1000_078.txt.gz
Probability
0 0 0 0 0 0 0 0 0 0 0 0 0 0 0 0 0 19 90 94 84 94 94 100 100 100 100 100 100 100 100 100 100 100 100 100 100 100 100 100 100 100 100 100 100 100 100 100 100
0 0 0 0 0 0 0 0 0 0 0 0 0 0 3 0 39 68 90 97 100 100 97 84 100 100 100 100 100 100 100 100 100 100 100 100 100 100 100 100 100 100 100 100 100 100 100 100 100
0 0 0 0 0 0 0 0 0 0 0 0 0 0 6 26 55 84 100 100 100 100 97 100 100 100 100 100 100 100 100 100 100 100 100 100 100 100 100 100 100 100 100 100 100 100 100 100 100
0 0 0 0 0 0 0 0 0 0 0 0 0 3 29 61 71 84 100 100 100 100 94 100 100 100 100 100 100 100 100 100 100 100 100 100 100 100 100 100 100 100 100 100 100 97 94 94 94
0 0 0 0 0 0 0 0 0 0 0 0 0 0 35 87 94 97 100 100 100 100 94 97 100 100 100 100 100 100 100 100 100 100 100 100 100 100 100 100 100 100 100 97 94 84 77 81 77
0 0 0 0 0 0 0 0 0 0 0 0 0 0 45 94 94 100 100 100 100 100 97 97 100 100 100 100 100 100 100 100 100 100 100 100 100 100 100 100 100 100 94 94 77 71 65 68 68
0 0 0 0 0 0 0 0 0 0 0 0 0 6 45 87 94 97 100 100 100 100 100 97 100 100 100 100 100 100 100 100 100 100 100 100 100 100 100 100 100 100 94 74 71 61 48 45 52
0 0 0 0 0 0 0 0 0 0 0 0 3 6 26 81 97 97 100 100 97 100 100 100 94 100 100 100 100 100 100 100 100 100 100 100 100 100 100 100 100 97 77 71 68 58 52 39 35
0 0 0 0 0 0 0 0 0 0 0 0 3 19 35 77 94 97 100 100 100 100 100 100 100 100 100 100 100 100 100 100 100 100 100 100 100 100 100 100 100 94 74 68 61 52 45 39 35
0 0 0 0 0 0 0 0 0 0 0 0 0 29 52 77 94 100 100 100 100 100 100 100 100 100 100 100 100 100 100 100 100 100 97 100 100 100 77 97 94 84 74 68 61 58 48 29 29
0 0 0 0 0 0 0 0 0 0 0 0 3 26 52 74 97 100 97 100 97 97 100 100 100 100 100 100 100 100 100 100 97 97 100 100 100 97 71 97 94 94 77 61 71 58 39 26 13
0 0 0 0 0 0 0 0 0 0 0 0 3 16 42 58 77 94 94 94 94 97 97 100 100 100 100 100 100 100 100 100 100 100 100 100 100 97 65 94 58 81 84 74 52 48 23 26 16
0 0 0 0 0 0 0 0 0 0 3 3 3 16 39 52 65 87 97 94 94 94 97 94 100 100 100 100 100 100 97 97 97 100 100 100 94 84 81 81 81 65 55 58 68 39 35 19 10
0 0 0 0 0 0 0 0 0 3 3 3 10 16 29 55 65 81 97 97 97 100 100 100 100 100 100 100 100 100 97 100 97 97 94 97 81 90 90 90 94 84 71 68 58 52 58 52 26
0 0 0 0 0 0 0 0 0 3 3 10 13 19 35 55 65 87 100 100 97 100 97 97 97 97 100 100 100 100 97 97 97 94 94 100 87 100 97 94 90 84 81 87 87 68 52 52 39
0 0 0 0 0 0 0 0 0 3 6 10 13 23 39 61 68 87 94 97 97 97 97 97 97 97 97 100 100 100 94 97 97 94 97 97 87 97 97 94 81 87 84 84 81 68 55 48 42
0 0 0 0 0 0 0 0 10 10 10 10 16 29 42 65 74 84 90 90 97 97 97 97 97 97 97 100 100 100 100 100 94 90 90 97 90 94 94 94 87 87 87 81 77 68 68 55 45
0 0 0 0 0 0 3 6 10 16 16 19 39 45 52 61 81 74 84 90 94 97 97 97 97 97 97 100 97 97 94 90 87 84 84 81 84 84 87 87 87 87 84 81 74 65 61 48 42
0 0 0 0 3 3 6 6 16 19 23 32 39 45 48 61 71 81 84 90 94 90 97 97 97 97 97 94 94 87 87 81 77 68 68 61 68 68 71 71 81 74 77 65 52 45 35 23 16
0 0 0 0 3 10 16 10 13 23 23 29 29 35 45 48 65 71 68 81 90 90 90 94 94 90 94 94 90 87 77 65 58 48 45 42 48 58 58 55 48 55 48 39 35 26 23 19 10
0 0 0 3 3 6 6 6 16 26 26 29 23 29 39 48 55 68 71 68 77 81 84 87 87 87 87 81 84 71 65 52 35 26 23 26 26 26 26 29 29 29 26 26 23 16 19 13 0
0 0 0 0 0 0 0 3 26 19 32 29 32 29 35 39 42 52 61 58 58 65 71 77 81 81 81 74 77 68 48 42 32 23 16 13 6 10 10 13 13 10 6 3 3 3 6 0 3
0 0 0 0 0 0 0 0 19 19 26 19 19 23 19 19 19 29 29 32 39 45 61 65 65 58 65 68 65 48 42 32 23 13 10 3 3 3 3 0 0 0 0 0 3 0 0 0 0
0 0 0 0 0 0 0 0 19 23 26 19 6 10 10 13 16 16 19 23 23 26 29 42 39 39 39 42 39 35 29 16 10 6 0 0 0 0 0 0 0 0 0 0 0 0 0 0 0
0 0 0 0 0 0 0 0 26 39 26 16 3 6 6 6 6 10 10 10 16 16 16 13 16 19 19 23 19 19 16 10 6 0 0 0 0 0 0 0 0 0 0 0 0 0 0 0 0
0 0 0 0 0 0 0 10 39 23 19 6 6 6 6 6 10 10 10 10 10 13 10 10 10 10 10 3 6 3 3 0 0 0 0 0 0 0 0 0 0 0 0 0 0 0 0 0 0
0 0 0 0 0 0 0 26 32 19 16 6 3 3 3 3 6 6 6 10 10 6 6 6 6 6 3 0 0 0 0 0 0 0 0 0 0 0 0 0 0 0 0 0 0 0 0 0 0
0 0 0 0 0 0 0 0 26 29 13 3 3 3 3 3 3 3 0 0 0 0 0 0 0 0 0 0 0 0 0 0 0 0 0 0 0 0 0 0 0 0 0 0 0 0 0 0 0
0 0 0 0 0 0 0 3 19 55 29 3 3 3 0 3 0 0 0 0 0 0 0 0 0 0 0 0 0 0 0 0 0 0 0 0 0 0 0 0 0 0 0 0 0 0 0 0 0
0 0 0 0 0 0 0 26 29 52 29 3 3 0 0 0 0 0 0 0 0 0 0 0 0 0 0 0 0 0 0 0 0 0 0 0 0 0 0 0 0 0 0 0 0 0 0 0 0

GEFSSGP_con_cape1000_084.txt.gz
Probability
0 0 0 0 0 0 0 0 0 0 0 0 0 0 3 3 26 58 68 74 100 100 100 100 100 100 100 100 100 100 100 100 100 100 100 100 100 100 100 100 100 100 100 100 100 100 97 97 100
0 0 0 0 0 0 0 0 0 0 0 0 0 0 3 6 29 52 77 100 100 100 100 100 100 100 100 100 100 100 100 100 100 100 100 100 100 100 100 100 100 100 100 100 100 100 97 100 100
0 0 0 0 0 0 0 0 0 0 0 0 0 0 0 19 32 71 100 100 100 100 100 100 100 100 100 100 100 100 100 100 100 100 100 100 100 100 100 100 100 100 100 100 100 100 100 100 100
0 0 0 0 0 0 0 0 0 0 0 0 0 3 16 26 35 90 97 100 100 100 100 100 100 100 100 100 100 100 100 100 100 100 100 100 100 100 100 100 100 100 100 100 100 100 97 94 87
0 0 0 0 0 0 0 0 0 0 0 0 0 19 45 52 87 97 97 100 100 97 100 100 100 100 100 100 100 100 100 100 100 100 100 100 100 100 100 100 100 100 100 100 97 94 87 87 84
0 0 0 0 0 0 0 0 0 0 0 0 0 26 61 71 94 97 97 100 100 100 100 100 100 100 100 100 100 100 100 100 100 100 100 100 100 100 100 100 100 100 100 87 84 81 77 74 81
0 0 0 0 0 0 0 0 0 0 0 0 0 23 55 74 87 97 97 94 97 100 100 100 100 100 100 100 100 100 100 100 100 100 100 100 100 100 100 100 100 100 94 87 77 71 68 74 68
0 0 0 0 0 0 0 0 0 0 0 0 0 10 52 58 87 90 94 90 97 100 100 100 100 100 100 100 100 100 100 100 100 100 100 100 100 100 100 100 100 97 90 77 68 58 52 55 61
0 0 0 0 0 0 0 0 0 0 0 0 6 23 35 55 74 87 94 87 94 97 97 94 97 97 97 100 100 100 100 100 100 100 100 100 100 100 100 97 100 97 84 68 65 58 52 61 68
0 0 0 0 0 0 0 0 0 0 0 0 10 32 39 52 74 87 90 90 94 97 84 77 94 97 97 94 100 100 100 100 100 100 100 100 100 100 97 100 100 100 84 74 74 74 68 45 23
0 0 0 0 0 0 0 0 0 0 0 0 6 16 42 58 68 87 90 90 97 100 97 87 90 100 90 100 97 100 100 100 100 100 100 100 100 100 100 97 100 94 84 68 71 71 52 32 26
0 0 0 0 0 0 0 0 0 0 0 0 10 13 35 48 55 71 90 87 94 100 100 100 97 100 100 100 100 100 100 100 100 100 100 100 100 100 100 100 97 97 94 97 84 74 68 58 52
0 0 0 0 0 0 0 0 0 3 3 0 10 13 26 32 42 55 77 84 84 100 100 100 100 100 100 100 100 100 100 100 100 100 100 100 100 100 100 100 100 97 100 100 100 90 77 61 58
0 0 0 0 0 0 0 0 3 3 3 3 6 10 19 23 29 52 74 81 87 97 100 100 100 100 100 100 100 100 100 100 100 97 100 100 100 100 100 100 100 100 100 100 94 84 84 71 71
0 0 0 0 0 0 0 3 3 3 3 3 6 10 16 23 32 39 71 84 94 97 100 100 100 100 100 100 100 100 100 97 97 97 97 100 100 100 100 100 100 100 97 90 87 84 74 74 68
0 0 0 0 0 0 0 3 6 6 3 6 13 16 19 23 29 48 74 90 97 97 97 97 100 100 100 100 100 97 97 97 97 97 97 97 97 97 97 97 94 90 90 90 90 84 71 71 71
0 0 0 0 0 0 0 6 6 6 13 16 10 10 10 16 39 55 74 81 94 94 94 94 94 100 100 100 97 97 97 97 97 97 97 97 97 97 97 94 90 87 90 90 84 74 81 77 71
0 0 0 0 0 0 3 10 13 16 13 13 10 13 23 45 61 65 68 77 90 94 94 97 97 97 97 97 97 97 97 97 94 87 84 87 81 84 87 84 81 81 84 84 81 68 68 48 45
0 0 0 0 0 6 10 19 26 26 26 32 35 39 52 68 65 68 68 71 77 84 87 97 97 97 97 94 97 97 90 84 74 65 68 68 61 61 61 61 65 65 61 58 52 45 35 32 29
0 0 0 0 0 10 19 26 29 42 45 52 55 48 65 58 61 68 65 68 71 81 81 84 84 87 90 94 94 94 84 68 61 52 42 35 42 39 45 52 52 52 48 42 32 39 32 26 16
0 0 0 0 0 10 16 23 32 39 42 48 45 52 55 55 52 52 52 61 65 65 68 74 74 74 77 84 81 77 68 55 48 35 26 19 19 19 23 23 23 23 23 19 19 19 13 6 0
0 0 0 0 0 0 0 3 29 29 42 48 48 35 35 29 29 32 39 39 35 48 52 55 74 74 71 71 68 65 58 48 35 23 19 13 6 6 6 6 13 16 13 10 10 3 3 0 0
0 0 0 0 0 0 0 0 23 29 32 32 26 16 10 10 10 6 6 13 13 23 29 39 42 45 55 58 55 52 45 29 13 13 10 6 6 6 6 6 3 3 3 0 0 0 0 0 0
0 0 0 0 0 0 0 0 10 29 39 26 16 6 3 3 6 10 6 6 13 13 19 29 29 29 32 39 35 35 26 19 10 10 0 0 0 0 0 0 0 0 0 0 0 0 0 0 0
0 0 0 0 0 0 0 0 19 42 23 16 10 3 6 6 6 6 10 10 10 13 13 16 19 16 16 16 16 16 13 10 6 3 0 0 0 0 0 0 0 0 0 0 0 0 0 0 0
0 0 0 0 0 0 0 3 45 42 13 10 13 10 10 10 10 10 10 10 10 10 10 13 13 13 13 13 10 3 6 3 0 0 0 0 0 0 0 0 0 0 0 0 0 0 0 0 0
0 0 0 0 0 0 3 19 32 29 10 10 10 10 3 0 3 3 6 6 6 6 3 10 6 10 6 3 0 0 0 0 0 0 0 0 0 0 0 0 0 0 0 0 0 0 0 0 0
0 0 0 0 0 0 0 3 19 26 6 6 10 0 0 0 0 0 0 0 0 3 3 3 3 3 0 0 0 0 0 0 0 0 0 0 0 0 0 0 0 0 0 0 0 0 0 0 0
0 0 0 0 0 0 0 0 3 19 3 3 0 0 0 0 0 0 0 0 0 0 0 0 0 0 0 0 0 0 0 0 0 0 0 0 0 0 0 0 0 0 0 0 0 0 0 0 0
0 0 0 0 0 0 0 3 10 13 10 0 0 0 0 0 0 0 0 0 0 0 0 0 0 0 0 0 0 0 0 0 0 0 0 0 0 0 0 0 0 0 0 0 0 0 0 0 0

GEFSSGP_con_cape1000_090.txt.gz
Probability
0 0 0 0 0 0 0 0 0 0 0 0 0 0 0 3 3 13 23 55 71 100 100 100 100 100 100 100 100 100 100 100 100 100 100 100 100 100 100 100 100 100 100 100 100 100 100 100 100
0 0 0 0 0 0 0 0 0 0 0 0 0 6 6 13 42 58 61 71 81 100 100 100 100 100 100 100 100 100 100 100 100 100 100 100 100 100 100 100 100 100 100 100 100 100 100 97 94
0 0 0 0 0 0 0 0 0 0 0 0 0 6 10 23 61 74 74 84 87 100 97 97 100 100 100 100 100 100 100 100 100 100 100 100 100 100 100 100 100 100 100 100 100 100 100 100 94
0 0 0 0 0 0 0 0 0 0 0 3 0 3 13 39 71 84 90 94 90 97 97 100 100 100 100 100 100 100 100 100 100 100 100 100 100 100 100 100 100 100 100 100 100 100 100 94 90
0 0 0 0 0 0 0 0 0 0 0 3 0 13 26 52 77 90 100 94 94 97 100 100 100 100 100 100 100 100 100 100 100 100 100 100 100 100 100 100 100 100 100 100 100 94 87 87 84
0 0 0 0 0 0 0 0 0 0 0 3 6 6 35 61 74 94 100 97 97 100 100 100 100 100 100 100 100 100 100 100 100 100 100 100 100 100 100 100 100 100 100 100 94 87 84 81 71
0 0 0 0 0 0 0 0 0 0 0 3 6 13 45 71 74 84 97 97 97 100 100 100 100 100 100 100 100 100 100 100 100 100 100 100 100 100 100 100 100 100 100 97 87 81 74 77 81
0 0 0 0 0 0 0 0 0 0 0 3 6 23 45 65 77 87 94 100 100 100 100 100 100 100 100 100 100 100 100 100 100 100 100 100 100 100 100 100 100 100 100 87 77 77 77 81 81
0 0 0 0 0 0 0 0 0 0 0 6 6 23 35 55 77 84 90 97 94 97 100 100 100 100 100 100 100 100 100 100 100 100 100 100 100 100 100 100 100 100 94 87 87 84 81 74 74
0 0 0 0 0 0 0 0 0 0 0 6 13 29 45 55 65 77 77 90 94 94 94 97 97 100 100 100 100 100 100 100 100 100 100 84 74 74 90 100 100 100 94 94 94 87 84 58 23
0 0 0 0 0 0 0 0 3 3 0 6 23 35 45 52 55 65 71 77 84 90 90 94 90 90 90 94 100 94 87 90 87 90 84 58 42 48 71 65 97 90 90 71 68 71 58 26 10
0 0 0 0 0 0 0 6 6 3 0 6 16 29 35 42 52 55 58 65 77 74 81 87 87 74 71 77 81 71 81 77 65 74 61 32 29 23 23 35 45 45 29 29 16 13 16 10 10
0 0 0 0 0 0 3 3 3 3 0 6 16 26 32 35 45 58 58 52 55 68 65 74 74 71 71 71 68 71 55 55 55 58 52 35 13 23 26 23 19 23 19 13 10 10 10 10 6
0 0 0 0 0 3 3 3 3 3 10 16 19 23 29 39 42 45 52 58 61 65 55 61 58 65 52 55 61 61 58 52 48 52 55 42 16 19 23 16 16 16 13 10 6 6 3 0 0
0 0 0 0 0 0 3 3 3 3 13 16 19 26 26 32 39 45 52 45 52 45 52 48 55 52 52 52 55 58 48 45 45 55 61 58 26 16 19 13 10 13 13 13 13 6 3 3 3
0 0 0 0 0 0 3 6 6 6 13 13 16 23 26 29 35 32 35 26 35 26 42 39 52 52 48 58 45 52 55 45 58 55 48 45 32 16 13 16 19 10 10 10 6 3 3 3 0
0 0 0 0 0 0 6 10 16 10 19 19 16 13 26 39 32 23 26 23 26 29 32 42 52 52 52 58 52 55 48 42 45 48 35 45 42 32 19 19 10 6 6 6 10 3 0 0 0
0 0 0 0 0 3 10 23 32 35 23 19 16 19 23 35 29 26 29 29 29 29 29 32 42 52 61 68 55 52 42 35 26 26 26 29 29 19 13 13 3 3 3 3 3 3 3 0 3
0 0 0 0 6 10 23 32 42 42 42 29 29 29 32 29 16 29 26 23 29 29 26 29 39 45 48 52 42 42 35 35 26 23 19 19 19 16 13 13 6 6 3 3 6 3 3 0 0
0 0 0 3 6 29 35 39 29 39 32 35 29 29 19 13 19 26 13 19 19 23 29 29 32 39 42 39 29 29 26 26 13 13 10 10 13 13 10 6 6 6 6 3 3 3 3 0 0
0 0 3 3 3 19 26 29 32 29 16 19 13 10 13 13 10 6 3 10 13 13 16 26 19 23 26 29 26 26 16 10 6 6 6 6 6 6 6 6 6 6 6 3 3 0 0 0 0
0 0 0 6 3 3 0 0 23 23 16 10 10 6 6 10 10 3 3 0 10 13 19 19 16 16 19 26 19 19 13 10 6 6 6 6 6 6 6 3 3 3 3 3 0 0 0 0 0
0 0 0 0 0 0 0 0 19 19 13 6 6 6 3 6 6 6 3 0 0 10 13 10 13 13 13 16 13 13 10 3 6 6 6 6 6 6 6 6 3 0 0 0 0 0 0 0 0
0 0 0 0 0 0 0 0 0 3 13 6 6 3 3 6 6 6 6 6 6 10 10 10 10 13 13 13 10 6 3 3 6 6 3 3 0 0 0 0 0 0 0 0 0 0 0 0 0
0 0 0 0 0 0 0 0 3 3 3 6 3 3 3 6 6 6 6 6 6 6 6 3 3 6 6 3 3 3 3 3 3 0 0 0 0 0 0 0 0 0 0 0 0 0 0 0 0
0 0 0 0 0 0 0 0 3 3 0 3 3 0 0 0 0 0 0 0 3 3 3 3 3 3 3 0 3 3 3 3 0 0 0 0 0 0 0 0 0 0 0 0 0 0 0 0 0
0 0 0 0 0 0 0 0 6 0 0 0 0 0 0 0 0 0 0 0 0 3 3 3 6 3 0 3 3 0 0 0 0 0 0 0 0 0 0 0 0 0 0 0 0 0 0 0 0
0 0 0 0 0 0 0 0 0 3 0 3 0 0 0 0 0 0 0 0 0 3 3 3 3 0 0 0 0 0 0 0 0 0 0 0 0 0 0 0 0 0 0 0 0 0 0 0 0
0 0 0 0 0 0 0 0 0 0 0 0 0 0 0 0 0 0 0 0 0 0 0 0 0 0 0 0 0 0 0 0 0 0 0 0 0 0 0 0 0 0 0 0 0 0 0 0 0
0 0 0 0 0 0 0 0 0 0 0 0 0 0 0 0 0 0 0 0 0 0 0 0 0 0 0 0 0 0 0 0 0 0 0 0 0 0 0 0 0 0 0 0 0 0 0 0 0

GEFSSGP_con_cape1000_096.txt.gz
Probability
0 0 0 0 0 0 0 0 0 0 0 0 0 0 0 0 0 3 6 26 61 84 97 100 100 100 100 100 100 100 100 100 100 100 100 100 100 100 100 100 100 100 100 100 100 100 97 100 100
0 0 0 0 0 0 0 0 0 0 0 0 0 0 3 3 19 26 35 52 81 94 100 100 100 100 100 100 100 100 100 100 100 100 100 100 100 100 100 100 100 100 100 100 100 100 97 100 100
0 0 0 0 0 0 0 0 0 0 0 0 3 6 10 13 52 48 55 77 90 97 100 100 100 100 100 100 100 100 100 100 100 100 100 100 100 100 100 100 100 100 100 100 100 97 97 100 100
0 0 0 0 0 0 0 0 0 0 0 0 6 6 16 42 52 55 77 84 94 97 97 100 100 100 100 100 100 100 100 100 100 100 100 100 100 100 100 100 100 100 100 100 100 100 100 90 90
0 0 0 0 0 0 0 0 0 0 0 0 6 6 19 55 65 71 84 81 90 97 97 100 100 100 100 100 100 100 100 100 100 100 100 100 100 100 100 100 100 100 100 100 100 97 90 90 90
0 0 0 0 0 0 0 0 0 0 3 3 6 13 26 58 65 87 84 81 90 94 97 100 100 100 100 100 100 100 100 100 100 100 100 100 100 100 100 100 100 100 100 100 97 90 90 90 90
0 0 0 0 0 0 0 0 0 0 0 3 3 10 26 68 74 84 90 90 87 90 100 100 100 100 100 100 100 100 100 100 100 100 100 100 100 100 100 100 100 100 100 97 90 90 87 84 87
0 0 0 0 0 0 0 0 0 0 0 3 10 19 29 65 84 84 84 90 90 97 97 97 97 97 97 97 97 97 100 100 100 100 100 100 100 100 100 100 100 100 100 87 87 84 74 81 81
0 0 0 0 0 0 0 0 0 0 0 6 13 29 48 71 81 84 84 84 87 97 97 97 97 97 97 97 97 97 100 100 100 100 100 100 97 97 97 100 100 100 97 90 90 87 84 77 71
0 0 0 0 0 0 0 0 0 0 3 6 13 42 58 68 84 84 84 81 90 94 94 97 97 97 97 97 97 97 97 100 100 100 100 94 90 94 100 100 100 100 100 97 90 90 84 52 32
0 0 0 0 0 0 0 0 3 0 0 10 13 39 58 68 84 81 87 90 94 94 94 97 97 97 97 97 97 97 97 97 94 97 94 77 58 68 77 77 84 87 90 71 68 68 55 42 26
0 0 0 0 0 0 0 3 3 0 3 6 13 39 55 58 77 81 84 87 94 90 90 87 87 87 90 90 90 87 87 84 87 84 74 52 42 39 39 32 42 58 65 61 39 26 23 13 10
0 0 0 0 0 0 3 3 3 13 10 13 23 35 58 58 65 65 71 71 81 84 87 87 87 87 84 87 87 81 77 77 71 68 58 45 32 29 23 19 13 32 29 19 16 6 6 6 6
0 0 0 0 0 3 3 3 3 13 13 16 23 35 45 55 58 61 68 68 61 71 68 81 84 84 81 77 74 74 71 68 52 61 48 35 26 26 16 16 16 13 19 13 13 10 10 10 3
0 0 0 0 0 0 3 3 10 10 6 16 26 32 35 39 52 55 55 58 55 61 61 65 71 74 68 65 68 71 71 58 52 45 48 32 23 13 13 16 10 13 13 10 10 6 6 6 3
0 0 0 0 0 0 0 0 13 19 16 16 26 26 32 42 42 39 39 42 52 52 48 52 58 48 48 48 45 55 45 39 39 29 26 26 26 13 10 10 10 10 10 3 3 6 6 3 0
0 0 0 0 0 0 0 3 29 13 16 16 16 19 16 19 19 16 26 39 45 35 32 42 35 35 42 35 32 26 26 23 19 13 19 26 23 16 10 13 6 6 6 3 3 3 3 3 0
0 0 0 0 0 3 3 23 29 26 23 13 16 16 13 19 23 19 26 26 35 29 26 23 23 26 29 29 13 10 10 10 16 10 10 10 16 16 6 6 3 3 3 3 3 3 3 3 0
0 0 0 0 0 3 3 23 32 26 23 16 13 16 16 13 16 16 16 29 35 23 23 26 26 29 23 23 19 10 10 6 6 6 10 10 10 13 6 6 6 3 3 3 3 3 3 3 0
0 0 0 10 10 6 19 26 26 23 26 23 19 13 13 13 13 19 13 19 23 19 19 23 23 19 23 16 13 10 6 6 6 6 6 10 10 10 6 6 6 3 3 3 3 3 3 0 0
0 0 0 3 10 13 10 10 26 23 13 13 6 3 3 6 6 13 16 16 13 19 19 19 16 16 10 10 6 6 3 3 3 3 3 3 6 6 6 6 3 3 3 3 3 3 3 0 0
0 0 0 3 0 0 0 0 13 23 19 13 13 10 10 10 6 6 10 10 13 16 13 13 13 3 3 6 6 3 3 3 3 3 3 3 3 6 6 6 3 3 3 3 3 3 0 0 0
0 0 0 0 0 0 0 0 10 19 16 10 13 6 6 10 10 6 10 10 10 6 6 3 3 6 6 6 10 6 3 3 3 3 3 3 6 6 6 6 3 3 3 3 3 0 0 0 0
0 0 0 0 0 0 0 0 6 10 3 6 6 10 6 10 10 10 3 6 6 3 0 3 10 10 6 10 6 3 3 3 3 3 3 3 3 3 3 0 0 0 0 0 0 0 0 0 0
0 0 0 0 0 0 0 0 0 6 6 3 3 3 3 0 0 6 6 3 0 0 3 3 3 6 3 0 0 0 3 3 3 3 3 3 3 3 0 0 0 0 0 0 0 0 0 0 0
0 0 0 0 0 0 0 0 3 3 3 3 3 0 0 0 0 0 0 0 0 0 3 6 6 3 0 0 0 0 3 3 3 3 3 0 0 0 0 0 0 0 0 0 0 0 0 0 0
0 0 0 0 0 0 0 0 0 3 3 3 3 0 0 0 0 0 0 0 3 3 3 3 0 0 0 0 0 0 0 3 3 0 0 0 0 0 0 0 0 0 0 0 0 0 0 0 0
0 0 0 0 0 0 0 0 0 0 3 3 0 0 0 0 0 0 0 0 0 0 0 0 0 0 0 0 0 0 0 3 0 0 0 0 0 0 0 0 0 0 0 0 0 0 0 0 0
0 0 0 0 0 0 0 0 0 0 0 0 0 0 0 0 0 0 0 0 0 0 0 0 0 0 0 0 0 0 0 0 0 0 0 0 0 0 0 0 0 0 0 0 0 0 0 0 0
0 0 0 0 0 0 0 0 0 0 0 0 0 0 0 0 0 0 0 0 0 0 0 0 0 0 0 0 0 0 0 0 0 0 0 0 0 0 0 0 0 0 0 0 0 0 0 0 0

GEFSSGP_con_cape1000_102.txt.gz
Probability
0 0 0 0 0 0 0 0 0 0 0 0 0 0 0 3 3 26 81 94 77 87 90 100 100 100 100 100 100 100 100 100 100 100 100 100 100 100 100 100 100 100 100 100 100 100 100 100 100
0 0 0 0 0 0 0 0 0 0 0 0 0 0 0 10 19 55 84 97 90 90 94 94 100 100 100 100 100 100 100 100 100 100 100 100 100 100 100 100 100 100 100 100 100 97 100 100 100
0 0 0 0 0 0 0 0 0 0 0 0 0 3 3 10 39 68 97 97 94 94 97 100 100 100 100 100 100 100 100 100 100 100 100 100 100 100 100 100 100 100 100 100 97 97 100 100 97
0 0 0 0 0 0 0 0 0 0 0 0 6 6 16 45 74 84 100 94 94 94 97 100 100 100 100 100 100 100 100 100 100 100 100 100 100 100 100 100 100 100 100 97 97 97 94 97 94
0 0 0 0 0 0 0 0 0 0 0 0 0 6 16 65 74 94 97 90 90 90 97 100 100 100 100 100 100 100 100 100 100 100 100 100 100 100 100 100 100 100 100 97 94 90 90 94 90
0 0 0 0 0 0 0 0 0 0 0 0 0 3 26 65 81 97 94 90 87 94 97 97 97 100 100 100 100 100 100 100 100 100 100 100 100 100 100 100 100 100 100 100 94 94 94 94 94
0 0 0 0 0 0 0 0 0 0 3 3 0 3 35 77 84 94 94 87 87 90 97 97 97 97 97 97 97 97 100 100 100 100 100 100 100 100 100 100 100 100 100 97 97 94 90 87 90
0 0 0 0 0 0 0 0 0 3 3 3 10 13 26 77 84 94 90 87 87 94 94 97 97 94 97 97 97 97 97 100 100 100 100 100 100 100 100 100 100 100 97 94 90 87 81 84 81
0 0 0 0 0 0 0 3 3 3 3 6 13 16 45 74 84 94 84 87 87 87 90 94 90 94 94 97 97 97 97 100 100 100 100 100 100 97 100 100 100 97 94 87 87 81 77 71 65
0 0 0 0 0 0 0 3 3 3 3 3 10 16 58 74 87 90 90 90 87 90 90 90 94 94 97 97 97 97 97 97 97 100 100 97 97 100 87 97 100 97 97 94 90 84 71 48 55
0 0 0 0 0 0 3 3 3 0 0 0 10 23 52 74 90 90 90 87 87 97 97 94 94 94 94 94 94 97 97 94 97 100 100 97 97 97 94 97 97 100 97 87 97 77 55 45 48
0 0 0 0 3 3 0 0 0 0 6 10 13 19 35 68 77 87 87 87 87 94 94 90 90 94 87 90 90 90 94 94 94 94 97 97 97 97 97 97 90 94 97 87 74 74 42 45 35
0 0 0 0 3 0 0 0 0 13 13 16 16 23 32 52 65 74 84 81 87 87 90 87 84 84 87 87 90 90 94 94 94 94 90 90 94 94 90 97 94 74 77 84 81 61 65 55 39
0 0 0 0 0 0 0 0 3 13 10 13 19 26 32 42 61 77 81 77 81 84 81 84 84 84 87 87 84 87 90 90 90 94 90 87 94 94 90 90 94 90 81 81 74 71 71 61 65
0 0 0 0 0 0 0 0 10 10 13 19 19 29 29 42 55 74 77 77 77 77 71 81 84 77 77 81 77 84 87 87 84 84 84 77 87 90 90 87 94 94 94 94 87 84 74 74 65
0 0 0 0 0 0 0 0 10 16 23 26 29 35 35 42 55 65 65 71 71 77 77 74 71 77 81 74 77 74 74 81 81 77 77 77 77 87 87 77 84 84 81 84 77 74 71 58 58
0 0 0 0 0 0 0 3 10 13 26 29 32 39 35 42 45 45 52 58 65 68 71 71 74 74 74 74 68 68 71 65 61 68 68 71 77 81 74 77 71 71 65 68 52 61 52 45 45
0 0 0 3 0 0 3 6 6 13 16 23 35 39 35 35 32 45 45 55 55 68 71 74 74 68 68 68 61 58 61 58 55 58 65 58 55 58 65 58 61 58 55 52 48 48 52 45 29
0 0 3 3 3 6 3 6 6 19 13 16 29 26 26 26 32 39 39 45 48 45 58 61 61 55 61 61 61 61 52 52 48 42 39 42 45 48 45 45 52 52 48 48 39 42 42 32 19
0 3 3 3 3 6 3 0 23 35 32 39 39 32 26 19 19 23 29 29 39 42 42 45 55 55 55 58 58 52 45 35 29 26 29 29 26 32 32 39 42 39 39 35 32 35 29 16 16
0 3 3 3 3 3 6 10 19 32 32 39 29 29 23 19 26 19 19 26 35 35 39 45 39 45 52 52 45 35 32 26 19 23 26 23 26 26 26 26 32 29 32 32 26 29 23 19 13
0 0 0 6 0 3 3 0 16 32 32 32 26 23 23 26 26 23 23 23 26 26 29 39 32 35 42 39 42 26 26 23 23 26 13 13 10 10 16 19 19 19 26 23 23 19 19 13 10
0 0 0 0 0 0 3 0 6 19 32 23 26 23 23 23 23 23 23 19 19 23 23 26 32 35 35 35 39 26 29 19 16 10 6 6 3 6 6 10 13 16 16 16 10 13 10 13 10
0 0 0 0 0 0 0 0 6 26 32 32 26 19 16 19 16 16 13 16 13 13 23 26 23 23 29 26 23 23 23 16 6 3 3 3 3 3 3 6 3 3 3 3 3 6 6 6 6
0 0 0 3 0 0 0 0 13 23 29 29 26 19 16 16 16 13 13 10 13 13 16 10 13 16 16 16 23 13 13 13 10 3 3 3 3 3 3 3 3 3 3 3 3 3 3 6 6
0 0 0 0 0 0 0 0 16 26 23 29 16 13 13 10 10 6 10 10 10 6 6 6 10 10 13 10 10 13 13 13 6 3 3 3 3 3 3 3 3 3 3 3 3 3 3 3 3
0 0 0 0 0 0 0 6 23 23 19 16 16 10 6 0 6 6 6 6 3 6 6 6 6 10 3 3 3 3 6 3 3 3 3 3 3 3 3 3 3 3 3 0 0 0 0 0 0
0 0 0 0 0 0 0 0 3 19 16 16 10 10 0 0 0 0 0 0 0 0 3 0 3 3 3 0 0 3 3 3 3 3 3 3 3 3 3 3 0 0 0 0 0 0 0 0 0
0 0 0 0 0 0 0 0 3 16 19 10 10 3 3 0 0 0 0 0 0 0 0 0 0 0 0 0 0 0 3 3 3 3 3 3 3 0 0 0 0 0 0 0 0 0 0 0 0
0 0 0 0 0 0 0 3 6 19 23 10 6 0 0 0 0 0 0 0 0 0 0 0 0 0 0 0 0 0 3 3 3 3 3 0 0 0 0 0 0 0 0 0 0 0 0 0 0

GEFSSGP_con_cape1000_108.txt.gz
Probability
0 0 0 0 0 0 0 0 0 0 0 0 3 3 6 6 23 71 74 61 94 97 97 100 100 100 100 100 100 100 100 100 100 100 100 100 100 100 100 100 100 100 100 97 97 97 97 100 100
0 0 0 0 0 0 0 0 0 0 0 3 3 3 3 10 23 58 81 87 97 97 97 100 100 100 100 100 100 100 100 100 100 100 100 100 100 100 100 100 100 97 97 97 97 97 97 100 100
0 0 0 0 0 0 0 0 0 0 0 3 3 3 6 13 29 71 90 97 100 97 97 100 100 100 100 100 100 100 100 100 100 100 100 100 100 100 100 100 100 97 97 97 97 97 97 97 100
0 0 0 0 0 0 0 0 0 0 3 3 3 3 10 13 39 77 97 97 100 97 97 100 100 100 100 100 100 100 100 100 100 100 100 100 100 100 100 100 97 97 97 97 97 97 97 97 97
0 0 0 0 0 0 0 0 0 0 3 3 3 6 19 35 48 81 90 94 94 97 94 97 100 97 97 97 97 97 100 100 100 100 100 100 100 100 100 100 100 97 97 94 94 94 94 94 90
0 0 0 0 0 0 0 0 0 0 3 3 0 6 35 45 52 81 84 94 94 94 97 97 97 97 97 97 97 97 97 100 100 100 100 100 100 100 100 100 100 97 94 94 94 94 94 94 87
0 0 0 0 0 0 0 0 0 3 0 0 0 6 32 48 68 84 84 90 94 94 97 97 97 97 97 97 97 97 97 100 100 100 100 100 100 100 100 100 100 100 97 97 94 94 94 90 90
0 0 0 0 0 0 0 3 3 3 0 3 3 10 35 65 81 74 84 84 87 94 90 94 94 97 97 97 97 97 97 100 100 100 100 100 100 100 100 100 100 100 100 97 94 94 97 90 90
0 0 0 0 0 0 3 3 3 3 3 3 3 23 52 68 68 71 77 84 84 90 87 81 90 97 97 94 97 97 100 100 100 100 100 100 100 100 100 100 97 97 97 97 94 94 90 90 84
0 0 0 0 0 0 3 3 3 0 3 3 13 23 42 52 61 68 77 77 90 87 84 81 87 90 84 84 94 97 97 97 94 94 97 100 100 94 90 97 97 94 94 94 97 94 94 81 61
0 0 0 3 0 0 0 0 0 0 3 6 13 13 29 42 55 61 71 77 84 84 87 81 81 81 74 77 90 90 87 87 87 87 90 90 90 90 94 90 94 97 94 90 90 90 71 39 45
0 0 0 3 0 0 0 0 3 6 6 10 13 23 29 35 48 58 74 68 74 74 74 71 77 84 81 81 81 84 84 87 77 84 84 77 84 84 84 84 84 94 87 94 84 74 58 52 48
0 0 0 0 0 0 0 3 3 6 10 13 13 16 29 35 48 52 55 68 68 71 81 71 77 74 74 81 81 84 84 84 84 84 84 84 81 65 65 68 81 77 77 90 90 74 65 45 35
0 0 0 0 0 0 0 0 0 6 6 10 13 16 23 29 39 58 58 74 74 74 71 71 71 68 74 77 81 81 74 77 77 77 77 71 65 58 61 65 71 74 77 81 81 81 74 71 61
0 0 0 0 0 0 0 0 0 10 13 10 23 23 29 39 45 58 58 68 68 71 77 71 71 68 68 74 81 74 74 68 81 68 61 58 58 58 58 61 71 71 74 74 77 77 81 68 61
0 0 0 0 0 0 0 0 6 10 10 16 26 26 29 35 39 45 55 68 71 71 71 68 71 71 65 65 74 81 81 77 74 68 61 55 58 58 61 61 65 61 65 71 74 68 68 55 58
0 0 0 0 0 0 0 6 13 13 13 23 29 32 35 39 39 42 52 58 71 68 71 58 61 58 61 61 71 71 71 77 68 65 61 55 52 45 58 58 55 65 68 65 55 61 55 48 42
0 0 0 0 0 0 3 3 16 13 13 26 26 26 32 29 32 35 52 55 58 65 65 61 55 61 61 61 58 58 58 55 55 52 48 52 48 45 42 45 45 48 48 45 42 45 39 42 39
0 0 0 0 3 3 0 0 10 10 19 23 29 29 29 26 23 32 42 42 48 52 55 55 52 45 52 55 55 55 52 42 39 35 29 29 32 39 45 48 48 42 39 45 29 29 26 26 19
0 0 0 0 3 3 0 0 3 16 19 32 29 26 26 26 29 19 35 35 32 35 35 45 39 45 48 48 45 52 42 35 32 23 23 23 26 35 32 35 32 32 39 32 32 26 19 13 10
0 0 0 0 3 3 0 0 0 19 19 23 23 26 29 29 29 23 26 26 26 26 32 35 42 42 45 45 45 45 39 26 23 23 19 19 19 19 19 19 23 26 29 19 16 19 16 10 13
0 0 0 0 0 0 0 0 3 16 13 16 23 16 23 32 29 29 29 23 26 26 23 32 35 26 32 35 35 32 32 29 26 23 16 13 13 16 16 19 19 23 23 23 13 10 10 6 6
0 0 0 0 0 0 0 0 3 10 10 23 23 19 23 26 23 29 26 23 23 23 19 23 23 26 19 29 35 32 23 29 26 19 6 10 6 6 10 10 10 10 13 16 16 6 6 6 3
0 0 0 0 0 0 0 0 0 6 10 16 16 16 19 19 16 16 19 19 13 16 16 16 13 13 13 19 23 19 16 16 16 16 10 10 6 10 10 6 6 6 6 6 6 3 3 3 3
0 0 0 0 0 0 0 0 3 3 3 13 13 16 16 16 13 13 10 10 13 13 10 10 16 13 13 16 16 19 16 16 16 13 6 3 3 3 3 3 3 3 3 3 3 3 3 3 3
0 0 0 0 0 0 0 0 3 6 13 13 13 13 16 13 10 10 10 10 10 10 10 10 10 6 10 13 13 16 16 13 13 6 3 3 3 3 3 3 3 3 3 3 3 3 3 3 3
0 0 0 0 0 0 0 0 3 10 6 6 13 13 6 3 3 3 0 0 3 3 3 6 3 3 3 6 6 6 10 10 6 3 3 3 3 3 0 3 3 3 3 3 3 3 3 3 3
0 0 0 0 0 0 0 0 0 3 6 10 13 13 3 3 3 3 0 0 0 0 0 0 0 0 0 0 0 0 3 3 3 3 3 3 3 3 3 3 3 3 3 3 3 0 0 0 0
0 0 0 0 0 0 0 0 0 10 10 10 10 3 0 0 0 0 0 0 0 0 0 0 0 0 0 0 0 0 0 3 3 3 3 3 3 3 3 3 3 0 0 0 0 0 0 0 0
0 0 0 0 0 0 0 0 0 13 16 6 3 0 0 0 0 0 0 0 0 0 0 0 0 0 0 0 0 0 0 3 3 3 3 3 3 3 3 3 3 0 0 0 0 0 0 0 0

GEFSSGP_con_cape1000_114.txt.gz
Probability
0 0 0 0 0 0 0 0 0 0 3 3 3 6 0 6 10 6 19 45 71 81 97 100 100 100 100 100 100 100 100 100 100 100 100 100 100 100 100 100 100 100 100 100 100 100 100 100 100
0 0 0 0 0 0 0 0 0 3 3 3 10 6 23 55 52 61 48 55 77 84 100 100 100 100 100 100 100 100 100 100 100 100 100 100 100 100 100 100 100 100 100 100 100 100 100 100 100
0 0 0 0 0 0 0 0 0 0 0 3 3 6 35 58 65 71 61 61 81 90 94 100 100 100 100 100 100 100 100 100 100 100 100 100 100 100 100 100 100 100 97 97 97 100 100 100 100
0 0 0 0 0 0 0 0 0 0 0 6 6 13 29 52 81 74 65 65 81 84 87 97 97 97 100 100 100 100 100 100 100 100 100 100 100 100 100 100 100 97 97 97 97 97 100 100 100
0 0 0 0 0 0 0 0 0 0 0 6 6 19 35 71 81 77 65 84 81 84 90 97 97 97 100 97 97 100 100 100 100 100 100 100 100 100 100 100 100 97 97 97 97 97 100 97 97
0 0 0 0 0 0 0 0 0 3 3 6 13 26 35 71 84 87 81 81 77 87 94 97 97 97 97 97 100 100 100 100 100 100 100 100 100 100 100 100 100 100 100 94 94 94 94 94 97
0 0 0 0 0 0 0 0 3 3 3 6 13 32 42 71 84 90 87 87 90 94 90 94 94 94 94 94 97 94 94 94 97 100 100 100 100 100 100 100 100 100 97 94 94 94 94 90 90
0 0 0 0 0 0 0 0 3 3 3 10 16 35 42 65 77 87 87 90 90 87 87 87 90 94 94 94 94 94 94 94 94 94 94 97 97 97 100 100 100 100 100 94 94 94 94 94 84
0 0 0 0 0 0 0 3 3 3 16 26 32 48 58 68 77 71 81 74 77 71 71 84 90 90 90 94 90 90 90 90 90 90 94 90 87 90 94 97 97 97 100 97 97 97 97 90 87
0 0 0 0 0 0 0 3 3 10 19 26 42 45 52 68 68 77 71 65 68 65 68 68 84 81 81 84 87 87 84 84 84 87 87 84 84 84 84 87 90 90 97 94 94 97 97 90 48
0 0 0 0 0 0 0 0 3 10 16 23 32 42 42 42 61 68 68 68 65 61 58 61 61 74 81 77 77 77 77 84 81 81 81 74 65 68 74 71 81 77 74 74 77 87 81 55 16
0 0 0 0 0 0 0 0 6 6 13 16 19 29 32 45 48 55 55 65 61 58 48 48 61 61 65 74 77 74 74 74 74 74 71 58 52 58 55 55 55 55 52 35 35 39 26 16 10
0 0 0 0 0 0 0 3 6 10 13 23 16 35 29 32 32 45 48 52 52 39 39 45 48 48 55 68 71 68 61 65 61 52 65 42 35 35 26 32 35 42 23 19 13 6 3 6 6
0 0 0 0 0 0 0 0 6 13 23 19 13 26 35 29 32 29 35 32 35 42 42 39 29 39 42 45 55 52 52 48 45 48 45 39 29 29 23 23 19 19 13 10 6 3 3 6 3
0 0 0 0 0 0 0 3 10 13 26 19 23 26 29 35 32 32 29 32 32 35 35 32 35 35 32 32 29 39 39 35 45 32 39 35 32 29 26 13 13 10 6 3 6 3 3 3 0
0 0 0 0 0 0 0 6 6 19 29 16 13 26 19 16 19 23 26 29 29 26 29 32 32 23 23 29 16 19 16 26 19 29 26 26 26 19 13 10 13 6 6 3 3 0 3 3 0
0 0 0 0 0 0 0 10 10 16 16 16 19 23 16 19 23 29 29 32 32 29 19 29 26 23 23 16 13 6 6 13 10 10 16 23 23 16 13 10 6 6 6 3 3 0 0 0 0
0 0 0 0 0 0 6 10 13 13 19 19 16 23 26 23 26 19 26 26 32 19 13 16 26 26 19 19 16 6 3 3 10 6 10 13 13 19 10 13 13 10 3 3 3 0 0 0 0
0 0 0 0 0 3 3 10 13 16 16 19 19 16 19 19 16 13 23 26 19 13 10 13 26 29 29 23 13 10 6 3 10 10 10 10 13 13 10 10 6 6 6 3 3 0 0 0 0
0 0 0 0 0 3 0 13 13 13 13 13 13 19 16 13 16 16 19 19 19 19 19 16 19 23 23 16 13 6 10 10 10 13 10 6 6 6 6 6 6 3 3 3 3 0 0 0 0
0 0 0 0 0 0 0 6 10 13 13 10 13 13 16 26 23 16 16 13 16 13 13 16 19 16 13 13 13 6 6 13 10 6 3 6 6 6 6 6 6 6 3 3 3 0 0 0 0
0 0 0 0 0 0 0 0 3 13 10 10 10 6 13 10 6 10 10 6 10 10 10 10 13 13 10 6 6 3 3 6 10 3 3 6 6 6 6 6 6 6 6 6 3 3 0 0 0
0 0 0 0 0 0 0 0 0 10 10 6 6 6 3 3 3 3 3 6 6 6 6 13 13 10 6 6 6 3 3 3 6 3 3 6 3 6 6 6 6 6 6 6 3 0 0 0 0
0 0 0 0 0 0 0 0 0 3 3 3 3 3 3 3 3 0 0 0 3 6 6 10 6 6 6 6 3 3 3 3 3 3 3 3 3 3 3 3 3 3 3 3 0 0 0 0 0
0 0 0 0 0 0 0 0 0 0 0 6 3 0 0 0 0 0 0 0 3 0 3 3 3 6 6 6 3 3 3 3 6 0 3 3 3 3 3 3 3 3 3 3 0 0 0 0 0
0 0 0 0 0 0 0 0 3 3 0 0 0 0 0 0 0 0 0 0 0 0 0 3 3 3 3 6 6 0 0 3 3 0 3 3 3 3 3 3 3 3 3 0 0 0 0 0 0
0 0 0 0 0 0 0 0 3 0 0 0 0 0 0 0 0 0 0 0 0 0 0 0 3 0 0 0 0 0 3 3 0 0 0 3 3 3 0 0 0 0 0 0 0 0 0 0 0
0 0 0 0 0 0 0 0 0 0 0 3 0 0 0 0 0 0 0 0 0 0 0 0 0 0 0 0 0 0 0 0 0 0 0 3 3 3 0 0 0 0 0 0 0 0 0 0 0
0 0 0 0 0 0 0 0 0 0 0 0 0 0 0 0 0 0 0 0 0 0 0 0 0 0 0 0 0 0 0 0 0 0 0 0 3 0 0 0 0 0 0 0 0 0 0 0 0
0 0 0 0 0 0 0 0 0 0 0 0 0 0 0 0 0 0 0 0 0 0 0 0 0 0 0 0 0 0 0 0 0 0 0 0 3 3 0 0 0 0 0 0 0 0 0 0 0

GEFSSGP_con_cape1000_120.txt.gz
Probability
0 0 0 0 0 0 0 0 0 0 0 0 0 0 0 6 0 0 3 32 55 81 100 100 100 100 100 100 100 100 100 100 100 100 100 100 100 100 100 100 100 100 100 100 100 100 100 100 100
0 0 0 0 0 0 0 0 0 0 0 0 3 19 19 32 32 23 32 58 68 87 97 100 100 100 100 100 100 100 100 100 100 100 100 100 100 100 100 100 100 100 100 100 100 100 100 100 100
0 0 0 0 0 0 0 0 0 3 0 3 3 19 32 55 71 52 42 77 74 90 97 100 100 100 100 100 100 100 100 100 100 100 100 100 100 100 100 100 100 100 100 100 100 100 100 100 100
0 0 0 0 0 0 0 0 0 0 3 3 10 29 42 65 68 65 58 74 77 90 94 97 100 100 100 100 100 100 100 100 100 100 100 100 100 100 100 100 100 100 100 100 100 100 100 100 100
0 0 0 0 0 0 0 0 0 0 3 3 23 42 55 71 74 55 68 74 77 84 87 94 100 100 100 100 100 100 100 100 100 100 100 100 100 100 100 100 100 100 100 100 100 100 100 100 97
0 0 0 0 0 0 0 0 0 0 3 10 23 42 58 68 71 71 71 71 77 84 90 94 97 97 100 97 97 97 100 100 100 100 100 100 100 100 100 100 100 100 100 100 100 97 97 97 97
0 0 0 0 0 0 0 0 3 10 13 16 26 58 74 77 77 77 71 68 71 84 87 87 90 90 90 94 94 94 97 97 97 97 100 100 100 100 100 100 100 100 100 97 94 97 97 97 100
0 0 0 0 0 0 0 3 6 13 19 19 35 65 74 81 81 81 77 74 81 81 84 84 84 84 87 87 94 94 94 94 97 94 97 97 97 97 97 97 100 100 97 97 94 94 97 100 97
0 0 0 0 0 0 0 6 13 19 23 29 42 58 74 81 77 74 74 71 74 81 84 84 84 84 84 84 87 87 90 90 90 90 94 94 94 94 94 94 97 94 94 94 94 90 97 97 97
0 0 0 0 0 0 0 3 13 16 26 35 55 74 84 77 74 74 74 71 71 71 77 74 77 81 84 84 84 84 84 84 87 87 87 87 87 87 87 90 94 94 97 97 97 94 90 81 71
0 0 0 0 0 0 3 3 10 13 23 32 55 71 74 71 65 71 71 68 61 58 68 65 71 71 77 74 74 74 77 77 81 84 84 74 74 77 81 81 81 84 84 81 87 77 68 58 39
0 0 0 0 0 0 3 3 6 16 16 26 35 55 65 65 61 65 65 52 52 48 55 58 58 68 65 65 71 71 71 71 71 68 74 71 71 68 71 71 74 74 68 52 52 52 42 35 16
0 0 0 3 3 3 3 6 6 16 19 23 32 42 45 55 58 55 52 52 52 48 52 55 55 61 61 61 55 55 48 55 58 61 58 58 52 58 48 55 52 52 48 48 39 32 29 23 13
0 0 0 3 3 3 3 3 6 19 23 19 26 29 32 32 42 42 48 42 42 42 42 48 45 42 45 45 45 45 42 45 42 48 48 42 42 42 35 26 32 32 32 32 26 23 19 13 13
0 0 0 0 3 3 0 6 6 16 19 19 26 23 26 26 26 26 32 35 35 35 32 39 35 35 35 39 29 39 42 39 39 35 39 39 35 32 26 26 26 32 23 19 16 16 13 6 6
0 0 0 0 0 0 0 3 6 10 13 16 23 23 26 26 26 26 26 23 29 29 35 35 35 32 32 26 26 23 23 26 29 26 26 26 26 19 13 19 26 19 13 13 13 13 13 3 0
0 0 0 0 3 0 0 3 10 13 13 13 16 19 26 26 29 29 26 23 26 26 26 26 26 23 26 19 16 13 10 13 16 13 16 19 26 16 13 10 10 10 13 10 10 10 6 3 0
0 0 0 3 3 3 3 3 19 13 16 16 19 23 23 23 19 23 23 16 19 19 19 19 19 19 23 19 10 3 6 6 6 10 10 10 16 16 10 6 6 3 10 10 10 10 3 0 0
0 0 0 0 0 0 0 13 19 16 10 16 16 19 13 16 16 13 6 6 6 19 19 19 16 16 16 19 16 3 3 3 3 3 3 3 6 6 10 10 3 3 6 10 10 10 0 0 0
0 0 0 0 0 0 3 6 16 16 10 10 13 16 13 13 13 10 10 10 10 10 10 13 13 16 19 19 16 6 3 3 3 0 0 3 3 6 6 10 3 3 3 6 6 6 0 0 0
0 0 0 0 3 3 3 6 10 10 10 10 13 13 10 6 3 6 6 10 10 13 13 10 10 16 13 13 6 3 0 0 0 0 0 0 3 3 3 10 3 3 3 3 6 6 0 0 0
0 0 0 0 0 0 0 0 6 13 10 13 13 3 3 3 0 0 3 10 10 10 6 10 3 6 10 6 3 6 3 0 0 0 0 0 0 3 3 3 3 3 3 3 3 3 0 0 0
0 0 0 0 0 0 0 0 0 10 10 10 10 3 3 0 0 0 0 3 6 3 0 0 0 0 3 6 3 3 3 0 0 0 0 0 0 0 3 3 3 3 3 3 3 3 0 0 0
0 0 0 0 0 0 0 0 0 3 6 13 6 0 0 0 0 0 0 3 0 0 3 3 0 3 0 0 3 3 0 0 0 0 0 0 0 0 0 3 3 3 3 3 3 3 0 0 0
0 0 0 0 0 0 0 0 0 0 0 3 3 0 0 0 0 0 0 0 0 0 0 0 0 0 0 0 3 3 0 0 0 0 0 0 0 0 0 0 0 3 3 3 3 0 0 0 0
0 0 0 0 0 0 0 0 0 3 0 0 0 0 0 0 0 0 0 0 0 0 0 0 0 0 0 0 0 0 0 0 0 0 0 0 0 0 0 0 0 0 3 3 3 3 0 0 0
0 0 0 0 0 0 0 0 0 3 0 0 0 0 0 0 0 0 0 0 0 0 0 0 0 0 0 0 0 0 0 0 0 0 0 0 0 0 0 0 3 3 3 3 3 3 0 0 0
0 0 0 0 0 0 0 0 0 0 0 0 0 0 0 0 0 0 0 0 0 0 0 0 0 0 0 0 0 0 0 0 0 0 0 0 0 0 0 0 3 3 3 3 0 0 0 0 0
0 0 0 0 0 0 0 0 0 0 0 0 0 0 0 0 0 0 0 0 0 0 0 0 0 0 0 0 0 0 0 0 0 0 0 0 0 0 0 0 3 3 3 3 0 0 0 0 0
0 0 0 0 0 0 0 0 0 0 0 0 0 0 0 0 0 0 0 0 0 0 0 0 0 0 0 0 0 0 0 0 0 0 0 0 0 0 0 3 3 3 0 0 0 0 0 0 0

GEFSSGP_con_cape1000_126.txt.gz
Probability
0 0 0 0 0 0 0 0 0 0 0 0 3 3 3 10 16 52 97 84 71 81 90 94 100 100 100 100 100 100 100 100 100 100 100 100 100 100 100 100 100 100 100 100 100 100 100 100 100
0 0 0 0 0 0 0 0 0 0 0 3 10 19 19 39 61 87 97 87 77 87 94 90 100 100 100 100 100 100 100 100 100 100 100 100 100 100 100 100 100 100 97 97 100 100 100 100 100
0 0 0 0 0 0 0 0 0 3 3 13 23 26 42 65 77 94 94 87 94 94 97 97 100 100 100 100 100 100 100 100 100 100 100 100 100 100 100 100 100 100 100 97 100 100 100 100 100
0 0 0 0 0 0 0 0 3 3 10 16 16 35 74 84 87 94 90 87 97 94 94 97 100 100 100 100 100 100 100 100 100 100 100 100 100 100 100 100 100 100 100 97 100 100 100 100 97
0 0 0 0 0 0 0 3 3 3 10 13 16 32 77 87 90 90 84 81 90 81 90 94 97 100 100 100 100 100 100 100 100 100 100 100 100 100 100 100 100 100 100 100 97 100 100 100 100
0 0 0 0 0 0 0 3 3 6 13 16 23 39 77 94 94 87 77 77 77 77 77 94 94 94 94 94 97 97 97 97 100 100 100 100 100 100 100 100 100 100 100 100 100 97 97 97 100
0 0 0 0 0 0 3 6 10 10 16 29 29 48 84 90 87 84 77 77 77 71 81 84 84 94 94 94 94 94 94 94 97 97 97 97 97 100 100 100 100 100 100 97 97 97 97 100 100
0 0 0 0 0 0 0 16 19 19 26 35 39 55 81 90 90 84 84 81 81 74 77 74 74 87 90 90 90 90 90 90 94 94 97 97 97 97 97 97 97 97 94 97 97 97 100 100 100
0 0 0 0 0 0 6 13 23 32 35 48 65 71 81 90 90 87 87 84 84 81 84 81 77 84 77 84 87 90 90 90 90 90 90 94 97 94 97 90 97 94 90 90 94 97 97 94 97
0 0 0 0 0 3 6 13 19 32 39 58 68 71 84 84 81 87 87 84 81 81 81 81 87 84 81 77 81 81 87 90 90 90 90 94 97 97 90 90 90 90 90 90 94 90 87 87 77
0 0 0 0 0 6 6 10 16 29 45 52 61 68 81 81 77 77 74 81 77 74 74 77 74 81 77 84 84 84 87 84 87 90 90 90 94 94 94 87 94 90 90 87 87 81 65 68 77
0 0 0 0 3 6 6 13 23 35 42 48 55 61 71 81 77 74 71 74 74 68 71 71 74 77 81 81 84 84 87 87 87 87 81 84 87 90 90 90 87 87 87 84 77 81 68 68 58
0 0 0 0 0 3 13 16 26 29 39 45 52 52 68 68 65 71 71 71 71 61 68 68 71 74 77 81 77 74 77 71 71 74 77 81 77 81 77 87 87 84 87 84 77 74 71 71 52
0 0 0 3 10 10 13 16 29 26 29 35 42 39 45 48 48 52 65 65 68 58 61 61 71 68 71 68 71 71 68 65 68 61 58 65 68 71 74 77 77 77 84 81 77 68 71 71 65
0 0 0 6 6 6 10 10 29 32 35 39 26 35 45 39 35 39 42 48 45 52 52 55 55 61 65 65 68 65 61 55 55 55 52 48 58 65 68 74 65 65 71 74 77 65 68 71 65
0 0 0 0 3 0 0 6 19 35 35 29 29 32 29 29 32 32 32 32 39 39 48 48 45 48 45 55 61 55 48 52 55 48 45 42 52 52 58 58 61 55 61 65 74 58 48 61 55
0 0 0 0 0 0 0 10 19 26 32 26 26 26 26 29 23 32 29 26 29 39 42 45 48 48 45 42 45 52 45 45 39 39 39 39 39 39 42 45 52 55 55 55 52 52 48 45 55
0 0 0 0 0 0 3 26 16 19 23 23 23 26 29 29 23 26 29 29 29 29 35 42 45 42 45 45 42 39 42 45 39 45 35 32 35 35 35 39 42 42 42 39 35 42 45 45 45
0 0 0 3 0 0 6 29 26 19 23 23 29 32 29 26 19 23 32 35 32 29 32 29 39 39 45 42 42 35 32 32 32 23 19 26 26 29 32 35 39 32 32 35 32 35 32 29 35
0 0 0 3 3 0 19 23 26 23 16 23 26 23 23 26 19 19 26 26 29 26 23 23 23 32 32 32 35 35 32 29 26 23 16 13 16 23 26 32 26 19 26 26 29 32 32 23 16
0 0 0 3 3 3 10 16 16 13 13 13 16 16 19 23 23 16 13 16 16 16 16 23 26 16 16 32 32 32 29 26 19 23 13 6 10 13 13 13 13 16 19 26 29 32 26 13 16
0 0 0 3 0 3 0 0 23 32 16 13 16 13 13 19 16 10 3 6 6 6 13 16 16 16 16 16 29 29 32 29 23 23 6 6 6 6 10 6 10 13 13 19 16 16 23 13 13
0 0 3 0 0 0 3 0 6 32 19 19 19 13 10 6 0 3 3 6 6 6 6 10 13 13 13 13 16 19 26 19 10 6 6 6 6 6 3 3 3 10 10 10 10 10 13 16 13
0 0 0 0 0 0 0 0 0 16 23 13 23 19 3 0 3 0 0 6 6 6 6 6 10 10 6 6 16 16 13 6 6 6 6 6 6 0 3 3 3 6 10 6 6 10 6 13 10
0 0 0 0 0 0 0 0 0 10 10 19 23 13 10 0 0 0 0 0 3 3 3 3 6 6 6 6 3 3 3 6 6 6 6 6 3 0 3 0 0 0 6 6 6 6 6 10 6
0 0 0 0 0 0 0 0 6 6 10 23 23 10 6 3 0 0 0 0 0 0 0 3 3 6 3 3 0 3 3 3 0 0 0 0 0 0 3 0 0 0 0 3 3 3 6 3 3
0 0 0 0 0 0 0 0 3 10 13 16 13 3 0 3 0 0 0 0 0 0 0 0 0 0 0 0 0 0 0 0 0 0 0 0 0 0 0 0 0 0 0 6 6 3 3 3 3
0 0 0 0 0 0 0 0 0 16 23 13 10 0 0 3 0 0 0 0 0 0 0 0 0 0 0 0 0 0 0 0 0 0 0 0 0 0 0 0 0 3 3 6 3 3 3 3 3
0 0 0 0 0 0 0 0 0 3 16 26 16 3 3 0 0 0 0 0 0 0 0 0 0 0 0 0 0 0 0 0 0 0 0 0 3 0 0 0 0 0 0 0 3 3 3 3 3
0 0 0 0 0 0 0 0 0 10 13 26 13 0 0 0 0 0 0 0 0 0 0 0 0 0 0 0 0 0 0 0 0 0 0 0 0 0 0 0 0 0 0 0 3 3 3 3 3

GEFSSGP_con_cape1000_132.txt.gz
Probability
0 0 0 0 0 0 0 0 0 0 0 3 6 16 23 26 39 48 68 84 90 84 94 97 97 97 97 97 97 97 97 100 97 100 100 100 100 100 100 100 100 100 100 97 100 97 100 100 100
0 0 0 0 0 0 0 0 0 0 0 6 10 23 29 45 45 58 74 97 97 90 100 97 100 97 97 97 97 100 100 97 100 100 97 100 100 100 100 100 100 100 97 97 100 100 100 100 100
0 0 0 0 0 0 0 0 3 3 3 6 16 26 39 58 52 74 90 100 94 94 100 100 100 100 100 100 100 100 100 100 100 100 100 100 100 100 100 100 100 100 97 97 97 100 100 100 100
0 0 0 0 0 0 0 0 3 3 3 6 19 32 52 58 68 77 87 100 94 90 97 100 100 100 100 100 100 100 100 100 100 100 100 100 100 100 100 100 97 100 100 100 97 97 100 100 100
0 0 0 0 0 0 0 0 0 3 3 10 23 52 58 68 74 84 94 97 90 94 97 97 100 100 97 100 100 100 100 100 97 97 100 100 100 100 100 100 94 97 97 97 97 97 97 100 100
0 0 0 0 0 0 0 0 0 0 3 10 19 61 65 61 74 77 77 84 90 94 90 94 94 97 94 94 94 94 97 97 97 97 94 97 100 100 100 100 97 97 97 100 100 100 100 100 97
0 0 0 0 0 0 0 0 3 3 0 10 19 68 61 68 71 77 74 71 81 87 90 94 94 94 94 94 94 94 94 94 94 97 97 94 94 97 97 97 97 97 94 97 97 97 100 100 97
0 0 0 0 0 0 0 0 6 16 13 13 23 61 68 68 68 58 71 68 77 77 71 68 81 90 90 94 94 94 94 94 94 94 94 94 97 97 97 97 97 97 90 94 94 94 94 94 97
0 0 0 0 0 0 0 6 16 26 23 32 35 58 55 61 68 61 71 74 71 81 71 65 65 77 77 84 84 94 90 90 90 90 90 90 94 97 94 94 97 94 90 94 90 87 87 90 97
0 0 0 0 0 3 3 6 19 26 26 35 52 58 48 58 65 74 74 74 77 71 68 81 81 77 77 77 87 90 87 94 94 97 97 97 94 94 87 84 90 87 87 87 87 90 87 84 81
0 0 0 0 0 3 3 13 23 26 32 39 55 52 55 65 68 77 68 65 68 71 74 74 77 81 77 77 77 90 90 97 90 87 87 90 90 87 84 87 87 87 81 84 90 90 74 71 68
0 0 0 0 0 3 16 19 23 29 39 45 52 58 65 68 58 58 58 71 71 68 71 77 77 84 87 81 84 87 90 90 77 81 81 87 90 90 87 87 87 84 84 84 81 81 77 71 71
0 0 0 0 6 10 19 19 23 29 39 52 48 52 52 52 55 58 58 52 61 65 61 65 65 77 84 87 81 77 81 77 84 84 77 81 87 87 81 81 77 81 84 81 77 74 74 68 65
0 0 0 3 3 6 19 19 26 26 35 39 42 42 35 39 48 48 55 58 65 58 58 58 55 71 81 84 81 81 81 81 81 71 68 71 81 74 74 74 77 74 81 74 74 74 68 71 68
0 0 0 0 3 3 6 16 32 32 35 42 35 29 32 35 39 32 48 55 58 52 58 65 65 61 68 71 77 71 71 71 71 65 61 52 58 71 68 65 65 61 58 61 61 58 65 55 52
0 0 0 0 3 3 3 13 23 32 35 35 35 29 26 32 29 35 42 48 48 48 55 55 52 58 68 71 74 74 68 68 61 58 58 52 55 58 65 55 55 61 55 55 58 45 45 52 45
0 0 0 0 3 3 0 13 26 23 23 39 35 26 26 26 23 26 32 39 42 55 55 52 52 55 55 58 61 65 68 61 55 58 52 48 48 52 48 61 55 55 61 58 39 35 32 32 39
0 0 0 0 3 3 3 13 29 23 23 23 39 29 23 32 32 29 32 35 39 42 48 52 52 48 52 55 61 58 55 48 45 45 48 42 45 42 48 45 42 45 39 35 32 26 23 23 19
0 0 0 0 0 0 3 10 23 26 29 23 39 32 23 29 29 32 32 35 35 42 42 39 45 45 48 45 55 52 39 42 42 35 35 35 35 35 39 39 42 39 35 26 26 16 16 13 10
0 0 0 0 0 0 3 13 13 23 26 26 39 32 29 26 29 26 29 29 35 32 35 39 39 39 39 48 42 42 39 35 35 35 32 32 29 32 23 29 29 32 26 23 19 19 16 10 6
0 0 0 0 0 0 3 3 23 16 19 26 26 32 29 23 26 23 26 23 29 29 26 29 29 29 29 29 35 35 35 35 35 35 32 23 23 23 26 19 19 19 23 23 19 16 10 3 6
0 0 0 0 0 0 0 0 16 26 23 26 26 29 32 26 19 13 13 13 16 16 19 19 23 23 26 26 26 29 35 32 32 32 29 26 19 13 10 13 13 16 16 19 13 13 13 6 6
0 0 0 0 0 0 0 0 3 29 26 23 35 26 23 16 10 10 10 10 6 10 10 13 16 16 19 23 26 23 19 23 26 23 23 23 19 13 10 10 13 13 13 10 16 16 13 10 6
0 0 0 0 0 0 0 0 6 10 23 29 39 29 29 13 6 0 3 6 0 0 0 6 10 13 19 19 19 19 19 19 19 19 16 16 13 10 13 10 13 13 10 10 10 13 16 13 10
0 0 0 0 0 0 0 0 6 13 6 19 35 23 23 10 3 0 0 0 0 0 0 0 6 3 6 13 10 13 13 16 13 10 10 10 6 6 6 6 13 10 10 10 10 10 10 13 13
0 0 0 0 0 0 0 0 6 3 16 26 39 23 23 16 3 0 0 0 0 0 0 0 0 0 0 3 6 6 6 6 6 13 13 13 10 3 3 6 3 10 10 10 10 6 6 6 10
0 0 0 0 0 0 0 0 6 6 16 35 29 19 19 16 6 0 0 0 0 0 0 0 0 0 0 0 0 0 3 3 3 6 6 3 3 0 6 6 3 6 6 3 6 10 10 3 10
0 0 0 0 0 0 0 0 0 10 26 29 19 16 16 16 6 3 3 3 0 0 0 0 0 0 0 0 0 0 0 0 3 3 0 3 0 0 0 0 6 6 6 3 6 6 3 3 3
0 0 0 0 0 0 0 0 6 19 26 23 26 19 16 6 10 6 3 3 0 0 0 0 0 0 0 0 0 0 0 0 0 0 0 0 0 0 0 0 3 3 3 6 6 3 3 3 0
0 0 0 0 0 0 0 0 10 13 23 23 16 23 13 3 3 3 6 3 0 0 0 0 0 0 0 0 0 0 0 0 0 0 0 0 0 0 0 0 3 0 0 0 0 0 0 0 0

GEFSSGP_con_cape1000_138.txt.gz
Probability
0 0 0 0 0 0 0 0 0 0 10 13 16 16 19 26 13 23 48 58 81 97 97 97 97 97 97 97 97 97 100 100 97 100 100 100 100 100 100 100 100 100 100 100 100 100 100 100 100
0 0 0 0 0 0 0 0 0 3 16 23 32 32 48 61 68 74 68 77 87 97 94 97 97 97 97 97 97 100 100 100 100 100 100 100 100 100 100 100 100 100 100 100 100 100 100 100 100
0 0 0 0 0 0 0 0 3 13 26 23 23 32 39 45 71 74 71 84 87 94 97 97 97 97 97 97 100 100 100 100 100 100 100 100 100 100 100 100 100 100 100 100 97 97 100 100 100
0 0 0 0 0 0 0 0 6 16 16 23 23 35 45 58 74 74 74 81 87 94 100 100 100 100 100 100 100 100 100 100 100 100 100 100 100 100 100 100 97 100 100 100 97 97 97 100 100
0 0 0 0 0 0 0 0 3 13 19 26 42 55 55 61 68 71 74 74 87 90 97 100 100 100 100 100 100 100 100 100 100 100 100 100 100 100 100 100 100 100 100 100 100 100 100 100 100
0 0 0 0 0 0 0 0 6 13 23 29 42 48 52 58 58 61 65 81 87 87 90 90 97 97 97 100 97 97 97 97 97 97 97 97 100 100 97 97 97 97 97 97 97 97 100 100 100
0 0 0 0 0 0 0 0 6 10 19 26 45 55 48 42 45 55 68 74 77 84 84 87 90 90 90 94 94 94 94 94 94 94 94 97 97 97 94 94 94 90 97 97 97 97 94 94 97
0 0 0 0 0 0 0 3 10 16 29 29 35 48 48 35 39 45 58 68 65 71 77 81 81 84 87 90 94 94 94 94 94 94 97 97 90 90 94 94 94 94 94 97 97 97 94 97 97
0 0 0 0 0 0 6 16 29 29 32 39 42 39 39 39 32 39 45 39 45 58 61 71 74 74 81 84 87 87 90 90 87 87 87 87 84 84 84 90 94 94 94 90 87 94 97 94 94
0 0 0 0 3 6 10 13 19 29 42 45 42 32 32 32 35 39 39 39 39 35 48 48 55 61 65 77 77 77 74 68 68 68 81 74 74 74 84 87 87 94 90 87 87 84 87 87 68
0 0 3 0 6 16 16 19 16 26 42 45 45 32 35 26 29 39 32 26 23 32 35 45 45 52 58 58 58 58 58 68 68 65 61 55 55 55 58 58 68 71 74 68 71 74 71 65 52
0 0 0 6 13 13 16 19 29 26 29 32 42 32 26 16 26 29 32 32 26 29 32 35 39 45 45 48 52 55 55 58 61 61 58 48 39 39 35 35 48 55 52 45 45 45 55 42 26
3 0 10 10 13 10 19 29 32 35 35 29 26 19 23 23 26 23 26 29 32 35 32 35 32 35 42 42 42 48 45 45 39 39 42 35 32 26 26 29 35 32 26 23 23 26 23 19 10
0 0 10 10 19 13 23 29 39 39 32 16 13 13 16 16 16 16 19 19 16 23 29 32 39 39 42 39 42 39 39 42 35 32 35 29 23 19 16 23 26 16 19 19 16 19 13 13 6
0 0 3 10 16 13 13 29 45 42 32 16 13 13 16 16 13 16 16 16 16 23 23 29 32 35 32 32 35 35 32 32 26 26 26 26 19 13 13 13 10 16 13 6 0 3 3 3 3
0 0 0 0 10 6 10 23 39 29 26 19 19 13 16 10 10 10 16 16 19 23 26 19 26 26 26 26 26 32 26 23 23 23 26 26 19 19 16 13 10 13 10 6 3 0 3 3 3
0 0 0 0 3 6 10 29 32 29 29 19 16 16 13 13 10 13 6 6 10 13 13 16 16 13 19 19 19 19 23 19 29 23 26 26 23 23 19 19 13 13 6 3 3 0 0 0 0
0 0 0 0 3 6 13 26 26 19 29 13 13 10 10 10 10 10 13 10 10 10 10 10 13 13 10 13 19 19 23 19 23 19 16 23 29 19 26 16 13 13 10 3 3 0 0 0 0
0 0 0 0 0 6 13 23 19 23 16 13 13 13 13 16 16 6 6 13 13 10 10 13 10 13 13 13 26 19 19 19 16 19 19 13 16 16 13 16 13 13 6 6 6 3 3 0 0
0 0 0 0 0 3 6 19 23 16 19 10 10 6 10 6 10 6 10 10 13 13 16 13 13 13 16 13 13 19 19 16 13 10 10 13 13 13 13 10 6 6 3 6 6 3 3 3 3
0 0 0 0 3 3 6 10 16 13 10 10 6 10 13 10 6 6 0 3 6 6 10 6 6 10 10 13 13 13 13 13 10 10 10 13 10 10 10 6 6 6 3 3 0 3 3 3 3
0 0 0 0 0 3 0 0 10 10 13 13 6 10 10 13 6 6 0 3 6 3 3 6 6 6 6 10 16 16 13 13 13 10 10 10 10 10 10 6 6 6 3 0 0 0 0 0 3
0 0 0 0 0 0 0 0 6 10 6 10 10 6 6 6 6 0 0 0 3 3 3 3 3 3 3 10 16 16 13 13 6 6 6 6 6 6 6 3 3 3 3 3 0 0 0 0 0
0 0 0 0 0 0 0 0 0 0 3 6 10 6 10 10 0 0 0 0 0 0 0 0 3 0 0 0 3 3 10 13 10 6 3 3 3 3 3 3 3 3 3 3 3 0 0 0 0
0 0 0 0 0 0 0 0 0 0 0 3 6 6 10 3 0 0 0 0 0 0 0 0 0 0 0 0 0 0 3 3 3 3 0 0 0 0 0 3 3 0 0 0 0 0 0 0 0
0 0 0 0 0 0 0 0 3 0 3 6 6 3 3 0 0 0 0 0 0 0 0 0 0 0 0 0 0 0 0 0 0 0 0 0 0 0 0 0 0 0 0 0 0 0 0 0 0
0 0 0 0 0 0 0 0 3 3 6 6 6 3 3 0 0 0 0 0 0 0 0 0 0 0 0 0 0 0 0 0 0 0 0 0 0 0 0 0 0 0 0 0 0 0 0 0 0
0 0 0 0 0 0 0 0 0 3 6 6 6 3 0 0 0 0 0 0 0 0 0 0 0 0 0 0 0 0 0 0 0 0 0 0 0 0 0 0 0 0 0 0 0 0 0 0 0
0 0 0 0 0 0 0 0 0 3 3 3 3 3 0 0 0 0 0 0 0 0 0 0 0 0 0 0 0 0 0 0 0 0 0 0 0 0 0 0 0 0 0 0 0 0 0 0 0
0 0 0 0 0 0 0 0 0 0 3 3 0 3 0 0 0 0 0 0 0 0 0 0 0 0 0 0 0 0 0 0 0 0 0 0 0 0 0 0 0 0 0 0 0 0 0 0 0

GEFSSGP_con_cape1000_144.txt.gz
Probability
0 0 0 0 0 0 0 0 0 3 10 10 10 6 10 16 6 6 29 61 71 81 84 94 97 100 100 100 100 100 100 100 100 100 100 100 100 100 100 100 100 100 100 100 100 100 100 100 100
0 0 0 0 0 0 0 0 0 3 10 13 26 35 48 61 52 58 61 74 81 84 87 87 97 100 100 100 100 100 100 100 100 100 100 100 100 100 100 100 100 100 100 97 97 100 100 100 100
0 0 0 0 0 0 0 0 3 6 6 13 16 42 55 68 74 65 68 84 81 81 87 87 97 97 100 100 100 100 100 100 100 100 100 100 100 100 100 100 100 100 100 97 97 97 97 97 97
0 0 0 0 0 0 0 3 3 6 10 16 35 52 58 58 68 71 81 81 81 84 87 94 100 100 100 100 100 100 100 100 100 100 100 100 100 100 100 100 97 97 100 100 100 100 100 100 100
0 0 0 0 0 0 0 0 0 6 16 29 55 55 52 52 65 74 77 74 74 77 84 94 100 100 100 100 100 97 97 97 97 97 100 100 97 97 97 97 97 97 97 97 97 97 97 97 97
0 0 0 0 0 0 0 0 3 16 19 26 52 45 45 55 68 74 68 65 65 77 77 87 97 97 100 97 94 94 94 94 94 94 97 97 97 97 97 97 97 97 97 97 97 97 97 97 97
0 0 0 0 0 0 0 0 3 10 19 32 48 48 52 61 61 61 61 55 58 65 74 74 81 87 94 97 97 97 97 97 97 97 97 97 97 97 94 94 94 94 97 94 94 97 97 97 97
0 0 0 0 0 3 0 6 16 16 26 32 42 52 55 55 52 42 42 48 52 61 65 65 65 68 81 87 94 94 94 94 94 94 94 90 90 87 90 90 94 94 94 94 94 94 94 94 94
0 0 0 0 0 3 3 13 16 23 32 32 39 42 52 55 42 39 42 42 42 48 55 58 65 68 77 81 87 87 87 87 81 81 87 84 84 84 84 81 84 90 90 90 94 94 94 90 90
0 0 0 0 0 3 10 6 16 42 42 39 42 55 55 48 42 39 42 42 42 42 45 48 58 58 68 71 58 58 61 68 68 68 68 65 58 58 74 74 81 84 87 81 81 81 84 77 65
0 0 0 3 3 6 13 13 16 42 42 42 42 45 45 39 32 29 29 26 19 23 26 35 42 45 48 52 58 58 58 58 58 58 52 48 48 48 52 48 52 68 71 65 68 65 61 65 58
3 0 0 3 3 6 13 16 23 23 39 48 45 39 35 29 23 26 19 16 19 23 23 26 35 39 45 48 48 48 48 52 55 48 48 42 29 23 29 29 29 35 39 45 48 45 45 42 48
0 3 6 3 6 16 23 23 23 29 29 29 39 32 26 13 10 13 13 13 16 19 23 26 23 29 35 39 39 39 39 45 39 35 39 29 19 23 19 16 19 23 19 19 23 29 29 26 23
0 6 3 3 6 16 23 23 26 35 23 19 26 19 19 16 10 13 10 13 13 13 10 16 13 23 32 32 32 23 23 29 29 29 23 19 16 19 19 13 16 16 16 16 19 13 16 10 10
0 0 6 6 10 16 6 19 26 23 26 19 16 19 19 19 16 10 10 6 6 3 6 3 6 16 23 26 26 23 19 23 26 26 19 23 19 16 10 10 6 13 13 13 6 3 6 10 13
0 3 0 0 10 3 0 6 29 23 26 23 19 13 19 10 10 10 10 13 6 6 3 0 10 10 13 19 13 16 19 19 16 19 16 19 23 16 10 6 10 13 6 6 3 3 3 3 6
0 3 0 3 0 6 3 13 29 19 19 16 23 16 10 10 10 10 10 13 6 3 3 0 3 6 6 6 10 10 6 10 10 10 10 16 16 16 10 10 6 6 6 6 3 3 3 3 3
0 0 0 0 0 3 6 19 29 16 13 13 13 6 10 10 10 10 10 10 10 6 6 3 6 3 3 0 6 6 6 3 6 3 3 6 6 16 10 6 6 6 3 3 0 0 0 0 0
0 0 0 0 3 3 3 19 26 26 16 13 13 3 6 6 6 6 6 3 3 3 6 3 3 3 3 3 3 10 10 6 3 3 6 6 6 6 10 10 3 3 6 3 3 3 0 0 0
0 0 0 3 3 3 3 16 26 26 19 13 10 10 6 3 6 10 6 6 6 3 3 0 3 3 3 0 3 3 3 6 3 3 6 6 6 6 10 10 6 3 3 0 0 0 3 3 0
0 0 0 3 3 3 3 3 16 23 13 13 19 13 3 6 6 10 6 6 6 6 3 6 3 0 3 3 3 10 6 6 6 6 6 6 6 10 10 10 6 3 3 3 0 0 0 0 0
0 0 0 0 3 3 0 0 3 16 19 13 10 3 3 3 3 6 6 3 3 3 3 3 3 3 0 0 0 6 6 6 6 3 3 6 6 10 6 6 6 3 3 3 0 0 0 0 0
0 0 0 0 0 0 0 0 3 6 3 6 3 10 6 6 3 3 3 3 3 3 3 3 3 3 3 3 3 6 6 6 0 0 6 3 0 0 0 3 3 3 3 3 3 0 0 0 0
0 0 0 0 0 0 0 0 0 3 3 3 3 3 6 6 0 0 3 3 3 3 3 3 3 3 3 3 3 3 6 3 0 0 0 0 0 0 0 0 0 0 0 0 0 0 0 0 0
0 0 0 0 0 0 0 0 0 3 0 3 0 3 6 3 3 0 3 0 3 3 0 0 0 0 0 0 0 0 0 0 0 0 0 0 0 0 0 0 0 0 0 0 0 0 0 0 0
0 0 0 0 0 0 0 0 3 3 3 0 3 3 3 3 0 3 3 0 0 0 0 0 0 0 0 0 0 0 0 0 0 0 0 0 0 0 0 0 0 0 0 0 0 0 0 0 0
0 0 0 0 0 0 0 0 3 3 3 3 3 3 3 0 0 0 0 0 0 0 0 0 0 0 0 0 0 0 3 0 0 0 0 0 0 0 0 0 0 0 0 0 0 0 0 0 0
0 0 0 0 0 0 0 0 3 3 3 3 3 3 0 0 0 0 0 0 0 0 0 0 0 0 0 0 0 0 0 0 0 0 0 0 0 0 0 0 0 0 0 0 0 0 0 0 0
0 0 0 0 0 0 0 0 0 3 0 3 3 3 0 0 0 0 0 0 0 0 0 0 0 0 0 0 0 0 0 0 0 0 0 0 0 0 0 0 0 0 0 0 0 0 0 0 0
0 0 0 0 0 0 0 0 0 0 0 0 0 0 0 0 0 0 0 0 0 0 0 0 0 0 0 0 0 0 0 0 0 0 0 0 0 0 0 0 0 0 0 0 0 0 0 0 0